Time,TemperatureF,DewpointF,PressureIn,WindDirection,WindDirectionDegrees,WindSpeedMPH,WindSpeedGustMPH,Humidity,HourlyPrecipIn,Conditions,Clouds,dailyrainin,SoftwareType,DateUTC
2013-05-12 00:00:00,39.9,31.3,29.82,WNW,296,0.0,-999.0,71,0.00,,,0.00,Wunderground v.1.15,2013-05-12 04:00:00,
2013-05-12 00:01:00,39.9,31.3,29.82,WNW,296,0.0,-999.0,71,0.00,,,0.00,Wunderground v.1.15,2013-05-12 04:01:00,
2013-05-12 00:02:00,39.9,31.3,29.82,WNW,296,0.0,-999.0,71,0.00,,,0.00,Wunderground v.1.15,2013-05-12 04:02:00,
2013-05-12 00:04:00,39.9,31.3,29.82,WNW,296,0.0,-999.0,71,0.00,,,0.00,Wunderground v.1.15,2013-05-12 04:04:00,
2013-05-12 00:06:00,39.8,31.5,29.82,WNW,296,0.0,-999.0,72,0.00,,,0.00,Wunderground v.1.15,2013-05-12 04:06:00,
2013-05-12 00:08:00,39.8,31.2,29.82,WNW,296,0.0,-999.0,71,0.00,,,0.00,Wunderground v.1.15,2013-05-12 04:08:00,
2013-05-12 00:09:00,39.8,31.5,29.82,WNW,296,0.0,-999.0,72,0.00,,,0.00,Wunderground v.1.15,2013-05-12 04:09:00,
2013-05-12 00:13:00,39.8,31.5,29.82,WNW,296,0.0,-999.0,72,0.00,,,0.00,Wunderground v.1.15,2013-05-12 04:13:00,
2013-05-12 00:14:00,39.8,31.5,29.82,WNW,296,0.0,-999.0,72,0.00,,,0.00,Wunderground v.1.15,2013-05-12 04:14:00,
2013-05-12 00:17:00,39.6,31.3,29.82,WNW,296,0.0,-999.0,72,0.00,,,0.00,Wunderground v.1.15,2013-05-12 04:17:00,
2013-05-12 00:19:00,39.6,31.3,29.82,WNW,296,0.0,-999.0,72,0.00,,,0.00,Wunderground v.1.15,2013-05-12 04:19:00,
2013-05-12 00:20:00,39.6,31.3,29.82,WNW,296,0.0,-999.0,72,0.00,,,0.00,Wunderground v.1.15,2013-05-12 04:20:00,
2013-05-12 00:21:00,39.6,31.3,29.82,WNW,296,0.0,-999.0,72,0.00,,,0.00,Wunderground v.1.15,2013-05-12 04:21:00,
2013-05-12 00:23:00,39.6,31.3,29.82,WNW,296,1.0,-999.0,72,0.00,,,0.00,Wunderground v.1.15,2013-05-12 04:23:00,
2013-05-12 00:25:00,39.6,31.7,29.82,WNW,296,0.0,-999.0,73,0.00,,,0.00,Wunderground v.1.15,2013-05-12 04:25:00,
2013-05-12 00:27:00,39.6,31.7,29.82,WNW,296,0.0,-999.0,73,0.00,,,0.00,Wunderground v.1.15,2013-05-12 04:27:00,
2013-05-12 00:28:00,39.6,31.7,29.82,WNW,296,0.0,-999.0,73,0.00,,,0.00,Wunderground v.1.15,2013-05-12 04:28:00,
2013-05-12 00:29:00,39.6,31.7,29.82,WNW,296,0.0,-999.0,73,0.00,,,0.00,Wunderground v.1.15,2013-05-12 04:29:00,
2013-05-12 00:30:00,39.6,31.7,29.82,WNW,296,1.0,-999.0,73,0.00,,,0.00,Wunderground v.1.15,2013-05-12 04:30:00,
2013-05-12 00:32:00,39.6,31.7,29.82,SW,229,0.0,-999.0,73,0.00,,,0.00,Wunderground v.1.15,2013-05-12 04:32:00,
2013-05-12 00:35:00,39.6,31.7,29.82,SW,229,0.0,-999.0,73,0.00,,,0.00,Wunderground v.1.15,2013-05-12 04:35:00,
2013-05-12 00:36:00,39.6,31.7,29.82,SW,229,0.0,-999.0,73,0.00,,,0.00,Wunderground v.1.15,2013-05-12 04:36:00,
2013-05-12 00:39:00,39.5,31.6,29.82,SW,229,0.0,-999.0,73,0.00,,,0.00,Wunderground v.1.15,2013-05-12 04:39:00,
2013-05-12 00:40:00,39.5,31.6,29.82,SW,229,0.0,-999.0,73,0.00,,,0.00,Wunderground v.1.15,2013-05-12 04:40:00,
2013-05-12 00:41:00,39.5,31.6,29.82,SW,229,0.0,-999.0,73,0.00,,,0.00,Wunderground v.1.15,2013-05-12 04:41:00,
2013-05-12 00:45:00,39.5,31.9,29.82,SW,229,0.0,-999.0,74,0.00,,,0.00,Wunderground v.1.15,2013-05-12 04:45:00,
2013-05-12 00:46:00,39.5,31.9,29.82,SW,229,0.0,-999.0,74,0.00,,,0.00,Wunderground v.1.15,2013-05-12 04:46:00,
2013-05-12 00:48:00,39.5,31.9,29.82,SW,229,0.0,-999.0,74,0.00,,,0.00,Wunderground v.1.15,2013-05-12 04:48:00,
2013-05-12 00:49:00,39.3,31.7,29.82,SW,229,0.0,-999.0,74,0.00,,,0.00,Wunderground v.1.15,2013-05-12 04:49:00,
2013-05-12 00:50:00,39.3,31.7,29.82,SW,229,0.0,-999.0,74,0.00,,,0.00,Wunderground v.1.15,2013-05-12 04:50:00,
2013-05-12 00:53:00,39.3,31.7,29.82,SW,226,0.0,-999.0,74,0.00,,,0.00,Wunderground v.1.15,2013-05-12 04:53:00,
2013-05-12 00:56:00,39.3,31.7,29.82,WSW,254,0.0,-999.0,74,0.00,,,0.00,Wunderground v.1.15,2013-05-12 04:56:00,
2013-05-12 00:57:00,39.3,31.7,29.82,WSW,254,0.0,-999.0,74,0.00,,,0.00,Wunderground v.1.15,2013-05-12 04:57:00,
2013-05-12 00:59:00,39.3,31.7,29.82,WSW,254,0.0,-999.0,74,0.00,,,0.00,Wunderground v.1.15,2013-05-12 04:59:00,
2013-05-12 01:00:00,39.3,31.7,29.82,SW,216,0.0,-999.0,74,0.00,,,0.00,Wunderground v.1.15,2013-05-12 05:00:00,
2013-05-12 01:03:00,39.3,32.0,29.82,SW,219,0.0,-999.0,75,0.00,,,0.00,Wunderground v.1.15,2013-05-12 05:03:00,
2013-05-12 01:04:00,39.3,31.7,29.82,SW,219,0.0,-999.0,74,0.00,,,0.00,Wunderground v.1.15,2013-05-12 05:04:00,
2013-05-12 01:05:00,39.3,31.7,29.82,SW,219,1.0,-999.0,74,0.00,,,0.00,Wunderground v.1.15,2013-05-12 05:05:00,
2013-05-12 01:09:00,39.3,31.7,29.82,SSW,195,1.0,-999.0,74,0.00,,,0.00,Wunderground v.1.15,2013-05-12 05:09:00,
2013-05-12 01:10:00,39.3,32.0,29.82,SW,232,1.0,-999.0,75,0.00,,,0.00,Wunderground v.1.15,2013-05-12 05:10:00,
2013-05-12 01:11:00,39.3,32.0,29.82,SW,230,0.0,-999.0,75,0.00,,,0.00,Wunderground v.1.15,2013-05-12 05:11:00,
2013-05-12 01:12:00,39.3,32.0,29.82,SSW,198,1.0,-999.0,75,0.00,,,0.00,Wunderground v.1.15,2013-05-12 05:12:00,
2013-05-12 01:15:00,39.3,32.0,29.82,WSW,254,1.0,-999.0,75,0.00,,,0.00,Wunderground v.1.15,2013-05-12 05:15:00,
2013-05-12 01:17:00,39.3,32.0,29.82,WSW,254,0.0,-999.0,75,0.00,,,0.00,Wunderground v.1.15,2013-05-12 05:17:00,
2013-05-12 01:18:00,39.3,32.0,29.82,WSW,254,0.0,-999.0,75,0.00,,,0.00,Wunderground v.1.15,2013-05-12 05:18:00,
2013-05-12 01:20:00,39.3,32.0,29.82,WSW,254,0.0,-999.0,75,0.00,,,0.00,Wunderground v.1.15,2013-05-12 05:20:00,
2013-05-12 01:21:00,39.2,31.9,29.82,WSW,254,0.0,-999.0,75,0.00,,,0.00,Wunderground v.1.15,2013-05-12 05:21:00,
2013-05-12 01:22:00,39.2,31.9,29.82,WSW,248,0.0,-999.0,75,0.00,,,0.00,Wunderground v.1.15,2013-05-12 05:22:00,
2013-05-12 01:26:00,39.2,31.9,29.82,SW,236,0.0,-999.0,75,0.00,,,0.00,Wunderground v.1.15,2013-05-12 05:26:00,
2013-05-12 01:28:00,39.2,31.9,29.82,SSW,206,2.0,-999.0,75,0.00,,,0.00,Wunderground v.1.15,2013-05-12 05:28:00,
2013-05-12 01:30:00,39.2,31.9,29.81,WSW,250,0.0,-999.0,75,0.00,,,0.00,Wunderground v.1.15,2013-05-12 05:30:00,
2013-05-12 01:32:00,39.2,31.9,29.81,WSW,239,0.0,-999.0,75,0.00,,,0.00,Wunderground v.1.15,2013-05-12 05:32:00,
2013-05-12 01:35:00,39.2,31.9,29.81,SSW,208,0.0,-999.0,75,0.00,,,0.00,Wunderground v.1.15,2013-05-12 05:35:00,
2013-05-12 01:38:00,39.2,31.9,29.81,WSW,247,0.0,-999.0,75,0.00,,,0.01,Wunderground v.1.15,2013-05-12 05:38:00,
2013-05-12 01:40:00,39.2,31.9,29.81,SSW,199,0.0,-999.0,75,0.00,,,0.01,Wunderground v.1.15,2013-05-12 05:40:00,
2013-05-12 01:43:00,39.2,31.9,29.81,SSW,213,0.0,-999.0,75,0.00,,,0.01,Wunderground v.1.15,2013-05-12 05:43:00,
2013-05-12 01:45:00,39.2,31.9,29.81,SSW,213,0.0,-999.0,75,0.00,,,0.01,Wunderground v.1.15,2013-05-12 05:45:00,
2013-05-12 01:46:00,39.2,31.9,29.81,SSW,213,0.0,-999.0,75,0.00,,,0.01,Wunderground v.1.15,2013-05-12 05:46:00,
2013-05-12 01:50:00,39.2,31.9,29.81,SW,220,0.0,-999.0,75,0.00,,,0.01,Wunderground v.1.15,2013-05-12 05:50:00,
2013-05-12 01:51:00,39.2,31.9,29.81,SW,220,0.0,-999.0,75,0.00,,,0.01,Wunderground v.1.15,2013-05-12 05:51:00,
2013-05-12 01:53:00,39.2,31.9,29.81,WSW,248,0.0,-999.0,75,0.00,,,0.01,Wunderground v.1.15,2013-05-12 05:53:00,
2013-05-12 01:55:00,39.1,31.8,29.81,WSW,248,0.0,-999.0,75,0.00,,,0.01,Wunderground v.1.15,2013-05-12 05:55:00,
2013-05-12 01:59:00,39.1,32.2,29.81,WNW,284,0.0,-999.0,76,0.00,,,0.01,Wunderground v.1.15,2013-05-12 05:59:00,
2013-05-12 02:00:00,39.1,32.2,29.81,West,281,0.0,-999.0,76,0.00,,,0.01,Wunderground v.1.15,2013-05-12 06:00:00,
2013-05-12 02:01:00,39.1,32.2,29.81,West,281,0.0,-999.0,76,0.00,,,0.01,Wunderground v.1.15,2013-05-12 06:01:00,
2013-05-12 02:02:00,39.1,32.2,29.81,West,281,0.0,-999.0,76,0.00,,,0.01,Wunderground v.1.15,2013-05-12 06:02:00,
2013-05-12 02:04:00,39.1,32.2,29.81,West,281,0.0,-999.0,76,0.00,,,0.01,Wunderground v.1.15,2013-05-12 06:04:00,
2013-05-12 02:06:00,39.1,32.2,29.81,WSW,253,2.0,-999.0,76,0.00,,,0.01,Wunderground v.1.15,2013-05-12 06:06:00,
2013-05-12 02:07:00,39.1,32.2,29.81,West,260,0.0,-999.0,76,0.00,,,0.01,Wunderground v.1.15,2013-05-12 06:07:00,
2013-05-12 02:09:00,39.1,32.2,29.81,WSW,250,1.0,-999.0,76,0.00,,,0.01,Wunderground v.1.15,2013-05-12 06:09:00,
2013-05-12 02:11:00,39.1,32.2,29.81,WSW,250,0.0,-999.0,76,0.00,,,0.01,Wunderground v.1.15,2013-05-12 06:11:00,
2013-05-12 02:12:00,39.1,32.2,29.81,WSW,250,1.0,-999.0,76,0.00,,,0.01,Wunderground v.1.15,2013-05-12 06:12:00,
2013-05-12 02:13:00,38.9,32.0,29.81,WSW,250,0.0,-999.0,76,0.00,,,0.01,Wunderground v.1.15,2013-05-12 06:13:00,
2013-05-12 02:15:00,38.9,32.0,29.81,WSW,250,2.0,-999.0,76,0.00,,,0.01,Wunderground v.1.15,2013-05-12 06:15:00,
2013-05-12 02:17:00,38.9,32.0,29.81,WSW,250,0.0,-999.0,76,0.00,,,0.01,Wunderground v.1.15,2013-05-12 06:17:00,
2013-05-12 02:18:00,38.9,32.0,29.81,WSW,250,0.0,-999.0,76,0.00,,,0.01,Wunderground v.1.15,2013-05-12 06:18:00,
2013-05-12 02:20:00,38.9,32.0,29.81,South,189,0.0,-999.0,76,0.00,,,0.01,Wunderground v.1.15,2013-05-12 06:20:00,
2013-05-12 02:22:00,38.9,32.0,29.81,WSW,248,2.0,-999.0,76,0.00,,,0.01,Wunderground v.1.15,2013-05-12 06:22:00,
2013-05-12 02:23:00,38.9,32.0,29.81,WSW,248,2.0,-999.0,76,0.00,,,0.01,Wunderground v.1.15,2013-05-12 06:23:00,
2013-05-12 02:25:00,38.9,32.0,29.81,West,263,0.0,-999.0,76,0.00,,,0.01,Wunderground v.1.15,2013-05-12 06:25:00,
2013-05-12 02:27:00,38.9,32.0,29.81,SSE,164,1.0,-999.0,76,0.00,,,0.01,Wunderground v.1.15,2013-05-12 06:27:00,
2013-05-12 02:28:00,38.9,32.0,29.81,West,267,0.0,-999.0,76,0.00,,,0.01,Wunderground v.1.15,2013-05-12 06:28:00,
2013-05-12 02:29:00,38.9,32.0,29.81,West,267,0.0,-999.0,76,0.00,,,0.01,Wunderground v.1.15,2013-05-12 06:29:00,
2013-05-12 02:30:00,38.9,32.0,29.81,SW,229,0.0,-999.0,76,0.00,,,0.01,Wunderground v.1.15,2013-05-12 06:30:00,
2013-05-12 02:33:00,38.9,32.0,29.81,WSW,251,0.0,-999.0,76,0.00,,,0.01,Wunderground v.1.15,2013-05-12 06:33:00,
2013-05-12 02:34:00,38.9,32.0,29.81,WSW,253,2.0,-999.0,76,0.00,,,0.01,Wunderground v.1.15,2013-05-12 06:34:00,
2013-05-12 02:35:00,38.9,32.0,29.81,South,185,1.0,-999.0,76,0.00,,,0.01,Wunderground v.1.15,2013-05-12 06:35:00,
2013-05-12 02:38:00,38.9,32.0,29.81,WSW,243,0.0,-999.0,76,0.00,,,0.01,Wunderground v.1.15,2013-05-12 06:38:00,
2013-05-12 02:39:00,38.9,32.0,29.81,WSW,243,0.0,-999.0,76,0.00,,,0.01,Wunderground v.1.15,2013-05-12 06:39:00,
2013-05-12 02:40:00,38.9,32.0,29.81,SW,229,0.0,-999.0,76,0.00,,,0.01,Wunderground v.1.15,2013-05-12 06:40:00,
2013-05-12 02:41:00,38.9,32.0,29.81,WSW,256,1.0,-999.0,76,0.00,,,0.01,Wunderground v.1.15,2013-05-12 06:41:00,
2013-05-12 02:44:00,38.9,32.0,29.81,South,186,2.0,-999.0,76,0.00,,,0.01,Wunderground v.1.15,2013-05-12 06:44:00,
2013-05-12 02:45:00,38.9,32.0,29.80,South,186,0.0,-999.0,76,0.00,,,0.01,Wunderground v.1.15,2013-05-12 06:45:00,
2013-05-12 02:47:00,38.9,32.0,29.80,South,186,0.0,-999.0,76,0.00,,,0.01,Wunderground v.1.15,2013-05-12 06:47:00,
2013-05-12 02:49:00,38.9,32.3,29.80,SSW,195,0.0,-999.0,77,0.00,,,0.01,Wunderground v.1.15,2013-05-12 06:49:00,
2013-05-12 02:50:00,38.9,32.3,29.80,SSW,195,0.0,-999.0,77,0.00,,,0.01,Wunderground v.1.15,2013-05-12 06:50:00,
2013-05-12 02:53:00,38.9,32.3,29.80,SSW,195,0.0,-999.0,77,0.00,,,0.01,Wunderground v.1.15,2013-05-12 06:53:00,
2013-05-12 02:54:00,38.8,32.2,29.80,SSW,195,0.0,-999.0,77,0.00,,,0.01,Wunderground v.1.15,2013-05-12 06:54:00,
2013-05-12 02:55:00,38.8,32.2,29.80,SSW,195,0.0,-999.0,77,0.00,,,0.01,Wunderground v.1.15,2013-05-12 06:55:00,
2013-05-12 02:56:00,38.8,32.2,29.80,SSW,195,0.0,-999.0,77,0.00,,,0.01,Wunderground v.1.15,2013-05-12 06:56:00,
2013-05-12 02:58:00,38.8,32.2,29.80,SW,232,2.0,-999.0,77,0.00,,,0.01,Wunderground v.1.15,2013-05-12 06:58:00,
2013-05-12 02:59:00,38.8,32.2,29.80,SW,232,0.0,-999.0,77,0.00,,,0.01,Wunderground v.1.15,2013-05-12 06:59:00,
2013-05-12 03:00:00,38.8,32.2,29.80,SW,216,0.0,-999.0,77,0.00,,,0.01,Wunderground v.1.15,2013-05-12 07:00:00,
2013-05-12 03:02:00,38.8,32.5,29.80,SW,227,0.0,-999.0,78,0.00,,,0.01,Wunderground v.1.15,2013-05-12 07:02:00,
2013-05-12 03:04:00,38.8,32.5,29.80,West,270,2.0,-999.0,78,0.00,,,0.01,Wunderground v.1.15,2013-05-12 07:04:00,
2013-05-12 03:06:00,38.8,32.5,29.80,West,268,0.0,-999.0,78,0.00,,,0.01,Wunderground v.1.15,2013-05-12 07:06:00,
2013-05-12 03:07:00,38.8,32.5,29.80,West,268,0.0,-999.0,78,0.00,,,0.01,Wunderground v.1.15,2013-05-12 07:07:00,
2013-05-12 03:10:00,38.6,32.3,29.80,WSW,244,0.0,-999.0,78,0.00,,,0.01,Wunderground v.1.15,2013-05-12 07:10:00,
2013-05-12 03:12:00,38.6,32.3,29.80,South,174,1.0,-999.0,78,0.00,,,0.01,Wunderground v.1.15,2013-05-12 07:12:00,
2013-05-12 03:13:00,38.6,32.3,29.80,South,174,0.0,-999.0,78,0.00,,,0.01,Wunderground v.1.15,2013-05-12 07:13:00,
2013-05-12 03:15:00,38.6,32.3,29.80,SW,233,0.0,-999.0,78,0.00,,,0.01,Wunderground v.1.15,2013-05-12 07:15:00,
2013-05-12 03:16:00,38.6,32.3,29.80,SW,233,0.0,-999.0,78,0.00,,,0.01,Wunderground v.1.15,2013-05-12 07:16:00,
2013-05-12 03:17:00,38.6,32.3,29.80,SW,233,0.0,-999.0,78,0.00,,,0.01,Wunderground v.1.15,2013-05-12 07:17:00,
2013-05-12 03:18:00,38.6,32.3,29.80,SW,233,0.0,-999.0,78,0.00,,,0.01,Wunderground v.1.15,2013-05-12 07:18:00,
2013-05-12 03:20:00,38.5,32.2,29.80,SW,233,0.0,-999.0,78,0.00,,,0.01,Wunderground v.1.15,2013-05-12 07:20:00,
2013-05-12 03:22:00,38.5,32.2,29.80,South,186,0.0,-999.0,78,0.00,,,0.01,Wunderground v.1.15,2013-05-12 07:22:00,
2013-05-12 03:23:00,38.5,32.2,29.80,South,186,0.0,-999.0,78,0.00,,,0.01,Wunderground v.1.15,2013-05-12 07:23:00,
2013-05-12 03:25:00,38.5,32.2,29.80,WSW,256,0.0,-999.0,78,0.00,,,0.01,Wunderground v.1.15,2013-05-12 07:25:00,
2013-05-12 03:28:00,38.5,32.2,29.80,WSW,237,0.0,-999.0,78,0.00,,,0.01,Wunderground v.1.15,2013-05-12 07:28:00,
2013-05-12 03:30:00,38.3,32.0,29.79,SW,222,2.0,-999.0,78,0.00,,,0.01,Wunderground v.1.15,2013-05-12 07:30:00,
2013-05-12 03:33:00,38.3,32.4,29.79,South,186,1.0,-999.0,79,0.00,,,0.01,Wunderground v.1.15,2013-05-12 07:33:00,
2013-05-12 03:36:00,38.3,32.4,29.79,SW,215,0.0,-999.0,79,0.00,,,0.01,Wunderground v.1.15,2013-05-12 07:36:00,
2013-05-12 03:38:00,38.3,32.4,29.79,SW,215,0.0,-999.0,79,0.00,,,0.01,Wunderground v.1.15,2013-05-12 07:38:00,
2013-05-12 03:39:00,38.3,32.4,29.79,South,188,0.0,-999.0,79,0.00,,,0.01,Wunderground v.1.15,2013-05-12 07:39:00,
2013-05-12 03:41:00,38.2,32.3,29.79,WSW,258,2.0,-999.0,79,0.00,,,0.01,Wunderground v.1.15,2013-05-12 07:41:00,
2013-05-12 03:43:00,38.2,32.3,29.79,SSW,205,1.0,-999.0,79,0.00,,,0.01,Wunderground v.1.15,2013-05-12 07:43:00,
2013-05-12 03:44:00,38.2,32.3,29.79,SSW,205,0.0,-999.0,79,0.00,,,0.01,Wunderground v.1.15,2013-05-12 07:44:00,
2013-05-12 03:45:00,38.2,32.3,29.79,SSW,199,2.0,-999.0,79,0.00,,,0.01,Wunderground v.1.15,2013-05-12 07:45:00,
2013-05-12 03:47:00,38.2,32.3,29.79,WNW,282,2.0,-999.0,79,0.00,,,0.01,Wunderground v.1.15,2013-05-12 07:47:00,
2013-05-12 03:49:00,38.2,32.3,29.79,South,191,0.0,-999.0,79,0.00,,,0.01,Wunderground v.1.15,2013-05-12 07:49:00,
2013-05-12 03:50:00,38.2,32.3,29.79,SSE,168,2.0,-999.0,79,0.00,,,0.01,Wunderground v.1.15,2013-05-12 07:50:00,
2013-05-12 03:51:00,38.2,32.3,29.79,WSW,247,2.0,-999.0,79,0.00,,,0.01,Wunderground v.1.15,2013-05-12 07:51:00,
2013-05-12 03:52:00,38.0,32.1,29.79,WSW,244,0.0,-999.0,79,0.00,,,0.01,Wunderground v.1.15,2013-05-12 07:52:00,
2013-05-12 03:55:00,38.0,32.1,29.79,SW,234,0.0,-999.0,79,0.00,,,0.01,Wunderground v.1.15,2013-05-12 07:55:00,
2013-05-12 03:56:00,38.0,32.1,29.79,SW,234,0.0,-999.0,79,0.00,,,0.01,Wunderground v.1.15,2013-05-12 07:56:00,
2013-05-12 03:57:00,38.0,32.1,29.79,SW,234,0.0,-999.0,79,0.00,,,0.01,Wunderground v.1.15,2013-05-12 07:57:00,
2013-05-12 04:01:00,38.0,31.7,29.79,SW,230,0.0,-999.0,78,0.00,,,0.01,Wunderground v.1.15,2013-05-12 08:01:00,
2013-05-12 04:02:00,38.0,31.7,29.79,SW,232,2.0,-999.0,78,0.00,,,0.01,Wunderground v.1.15,2013-05-12 08:02:00,
2013-05-12 04:06:00,38.0,31.7,29.79,WSW,244,0.0,-999.0,78,0.00,,,0.01,Wunderground v.1.15,2013-05-12 08:06:00,
2013-05-12 04:07:00,38.0,31.7,29.79,WSW,244,0.0,-999.0,78,0.00,,,0.01,Wunderground v.1.15,2013-05-12 08:07:00,
2013-05-12 04:11:00,38.0,31.7,29.79,West,270,0.0,-999.0,78,0.00,,,0.01,Wunderground v.1.15,2013-05-12 08:11:00,
2013-05-12 04:12:00,38.0,31.7,29.79,West,264,0.0,-999.0,78,0.00,,,0.01,Wunderground v.1.15,2013-05-12 08:12:00,
2013-05-12 04:13:00,38.2,31.6,29.79,WSW,244,2.0,-999.0,77,0.00,,,0.01,Wunderground v.1.15,2013-05-12 08:13:00,
2013-05-12 04:17:00,38.2,31.3,29.79,WNW,289,0.0,-999.0,76,0.00,,,0.01,Wunderground v.1.15,2013-05-12 08:17:00,
2013-05-12 04:18:00,38.2,31.3,29.79,WNW,284,2.0,-999.0,76,0.00,,,0.01,Wunderground v.1.15,2013-05-12 08:18:00,
2013-05-12 04:20:00,38.2,31.3,29.79,West,267,0.0,-999.0,76,0.00,,,0.01,Wunderground v.1.15,2013-05-12 08:20:00,
2013-05-12 04:22:00,38.2,31.3,29.79,SW,217,0.0,-999.0,76,0.00,,,0.01,Wunderground v.1.15,2013-05-12 08:22:00,
2013-05-12 04:23:00,38.2,31.3,29.79,SW,217,0.0,-999.0,76,0.00,,,0.01,Wunderground v.1.15,2013-05-12 08:23:00,
2013-05-12 04:24:00,38.2,31.3,29.79,SW,233,0.0,-999.0,76,0.00,,,0.01,Wunderground v.1.15,2013-05-12 08:24:00,
2013-05-12 04:26:00,38.3,31.1,29.79,WNW,289,0.0,-999.0,75,0.00,,,0.01,Wunderground v.1.15,2013-05-12 08:26:00,
2013-05-12 04:28:00,38.3,30.7,29.79,West,265,1.0,-999.0,74,0.00,,,0.01,Wunderground v.1.15,2013-05-12 08:28:00,
2013-05-12 04:29:00,38.3,30.7,29.79,SW,233,1.0,-999.0,74,0.00,,,0.01,Wunderground v.1.15,2013-05-12 08:29:00,
2013-05-12 04:33:00,38.5,30.6,29.79,WNW,302,0.0,-999.0,73,0.00,,,0.01,Wunderground v.1.15,2013-05-12 08:33:00,
2013-05-12 04:34:00,38.5,30.6,29.79,WNW,301,0.0,-999.0,73,0.00,,,0.01,Wunderground v.1.15,2013-05-12 08:34:00,
2013-05-12 04:35:00,38.5,30.6,29.79,WSW,258,0.0,-999.0,73,0.00,,,0.01,Wunderground v.1.15,2013-05-12 08:35:00,
2013-05-12 04:38:00,38.5,30.3,29.79,WNW,288,1.0,-999.0,72,0.00,,,0.01,Wunderground v.1.15,2013-05-12 08:38:00,
2013-05-12 04:39:00,38.5,30.3,29.79,West,265,4.0,-999.0,72,0.00,,,0.01,Wunderground v.1.15,2013-05-12 08:39:00,
2013-05-12 04:40:00,38.5,30.3,29.79,SSE,161,3.0,-999.0,72,0.00,,,0.01,Wunderground v.1.15,2013-05-12 08:40:00,
2013-05-12 04:44:00,38.6,30.4,29.79,NW,326,1.0,-999.0,72,0.00,,,0.01,Wunderground v.1.15,2013-05-12 08:44:00,
2013-05-12 04:45:00,38.6,30.4,29.79,NW,316,0.0,-999.0,72,0.00,,,0.01,Wunderground v.1.15,2013-05-12 08:45:00,
2013-05-12 04:49:00,38.6,30.4,29.79,WSW,247,0.0,-999.0,72,0.00,,,0.01,Wunderground v.1.15,2013-05-12 08:49:00,
2013-05-12 04:50:00,38.6,30.0,29.79,WNW,298,3.0,-999.0,71,0.00,,,0.01,Wunderground v.1.15,2013-05-12 08:50:00,
2013-05-12 04:51:00,38.6,30.0,29.79,WNW,302,1.0,-999.0,71,0.00,,,0.01,Wunderground v.1.15,2013-05-12 08:51:00,
2013-05-12 04:55:00,38.6,30.0,29.79,NW,306,3.0,-999.0,71,0.00,,,0.01,Wunderground v.1.15,2013-05-12 08:55:00,
2013-05-12 04:56:00,38.6,30.0,29.79,NW,316,2.0,-999.0,71,0.00,,,0.01,Wunderground v.1.15,2013-05-12 08:56:00,
2013-05-12 04:58:00,38.6,30.0,29.79,NW,319,3.0,-999.0,71,0.00,,,0.01,Wunderground v.1.15,2013-05-12 08:58:00,
2013-05-12 05:00:00,38.6,30.0,29.78,NW,318,1.0,-999.0,71,0.00,,,0.01,Wunderground v.1.15,2013-05-12 09:00:00,
2013-05-12 05:01:00,38.6,30.0,29.78,WSW,248,2.0,-999.0,71,0.00,,,0.01,Wunderground v.1.15,2013-05-12 09:01:00,
2013-05-12 05:03:00,38.6,30.0,29.78,NW,311,6.0,-999.0,71,0.00,,,0.01,Wunderground v.1.15,2013-05-12 09:03:00,
2013-05-12 05:05:00,38.6,30.0,29.78,WNW,285,0.0,-999.0,71,0.00,,,0.01,Wunderground v.1.15,2013-05-12 09:05:00,
2013-05-12 05:06:00,38.6,30.0,29.78,WNW,285,0.0,-999.0,71,0.00,,,0.01,Wunderground v.1.15,2013-05-12 09:06:00,
2013-05-12 05:09:00,38.6,30.0,29.78,SW,227,0.0,-999.0,71,0.00,,,0.01,Wunderground v.1.15,2013-05-12 09:09:00,
2013-05-12 05:10:00,38.6,30.0,29.78,SSW,212,0.0,-999.0,71,0.00,,,0.01,Wunderground v.1.15,2013-05-12 09:10:00,
2013-05-12 05:11:00,38.6,30.0,29.78,SW,219,0.0,-999.0,71,0.00,,,0.01,Wunderground v.1.15,2013-05-12 09:11:00,
2013-05-12 05:13:00,38.5,29.9,29.78,SW,219,1.0,-999.0,71,0.00,,,0.01,Wunderground v.1.15,2013-05-12 09:13:00,
2013-05-12 05:14:00,38.5,29.9,29.78,WSW,250,0.0,-999.0,71,0.00,,,0.01,Wunderground v.1.15,2013-05-12 09:14:00,
2013-05-12 05:16:00,38.5,29.9,29.79,WNW,282,1.0,-999.0,71,0.00,,,0.01,Wunderground v.1.15,2013-05-12 09:16:00,
2013-05-12 05:17:00,38.5,29.9,29.79,SSW,212,0.0,-999.0,71,0.00,,,0.01,Wunderground v.1.15,2013-05-12 09:17:00,
2013-05-12 05:18:00,38.5,29.9,29.79,WSW,247,0.0,-999.0,71,0.00,,,0.01,Wunderground v.1.15,2013-05-12 09:18:00,
2013-05-12 05:19:00,38.5,29.9,29.79,South,185,0.0,-999.0,71,0.00,,,0.01,Wunderground v.1.15,2013-05-12 09:19:00,
2013-05-12 05:23:00,38.3,29.7,29.79,WSW,240,0.0,-999.0,71,0.00,,,0.01,Wunderground v.1.15,2013-05-12 09:23:00,
2013-05-12 05:24:00,38.3,29.7,29.79,WSW,240,0.0,-999.0,71,0.00,,,0.01,Wunderground v.1.15,2013-05-12 09:24:00,
2013-05-12 05:28:00,38.3,30.1,29.79,WSW,253,0.0,-999.0,72,0.00,,,0.01,Wunderground v.1.15,2013-05-12 09:28:00,
2013-05-12 05:29:00,38.3,30.1,29.79,WSW,243,0.0,-999.0,72,0.00,,,0.01,Wunderground v.1.15,2013-05-12 09:29:00,
2013-05-12 05:33:00,38.2,30.0,29.79,WSW,243,0.0,-999.0,72,0.00,,,0.01,Wunderground v.1.15,2013-05-12 09:33:00,
2013-05-12 05:34:00,38.2,30.0,29.79,WSW,243,0.0,-999.0,72,0.00,,,0.01,Wunderground v.1.15,2013-05-12 09:34:00,
2013-05-12 05:35:00,38.2,30.0,29.79,West,267,6.0,-999.0,72,0.00,,,0.01,Wunderground v.1.15,2013-05-12 09:35:00,
2013-05-12 05:39:00,38.2,30.0,29.79,West,277,0.0,-999.0,72,0.00,,,0.01,Wunderground v.1.15,2013-05-12 09:39:00,
2013-05-12 05:40:00,38.2,30.3,29.79,NW,311,0.0,-999.0,73,0.00,,,0.01,Wunderground v.1.15,2013-05-12 09:40:00,
2013-05-12 05:41:00,38.2,30.3,29.79,SW,219,2.0,-999.0,73,0.00,,,0.01,Wunderground v.1.15,2013-05-12 09:41:00,
2013-05-12 05:44:00,38.2,30.3,29.79,WSW,248,0.0,-999.0,73,0.00,,,0.01,Wunderground v.1.15,2013-05-12 09:44:00,
2013-05-12 05:45:00,38.2,30.3,29.79,WSW,240,0.0,-999.0,73,0.00,,,0.01,Wunderground v.1.15,2013-05-12 09:45:00,
2013-05-12 05:46:00,38.2,30.3,29.79,SSW,213,0.0,-999.0,73,0.00,,,0.01,Wunderground v.1.15,2013-05-12 09:46:00,
2013-05-12 05:49:00,38.2,30.3,29.79,SW,224,0.0,-999.0,73,0.00,,,0.01,Wunderground v.1.15,2013-05-12 09:49:00,
2013-05-12 05:50:00,38.2,30.3,29.79,SW,224,0.0,-999.0,73,0.00,,,0.01,Wunderground v.1.15,2013-05-12 09:50:00,
2013-05-12 05:51:00,38.2,30.3,29.79,SW,224,0.0,-999.0,73,0.00,,,0.01,Wunderground v.1.15,2013-05-12 09:51:00,
2013-05-12 05:52:00,38.2,30.3,29.79,SW,233,0.0,-999.0,73,0.00,,,0.01,Wunderground v.1.15,2013-05-12 09:52:00,
2013-05-12 05:54:00,38.2,30.6,29.79,West,261,0.0,-999.0,74,0.00,,,0.01,Wunderground v.1.15,2013-05-12 09:54:00,
2013-05-12 05:55:00,38.2,30.6,29.79,West,261,0.0,-999.0,74,0.00,,,0.01,Wunderground v.1.15,2013-05-12 09:55:00,
2013-05-12 05:56:00,38.3,30.7,29.79,SW,216,2.0,-999.0,74,0.00,,,0.01,Wunderground v.1.15,2013-05-12 09:56:00,
2013-05-12 05:57:00,38.3,30.4,29.79,SW,220,1.0,-999.0,73,0.00,,,0.01,Wunderground v.1.15,2013-05-12 09:57:00,
2013-05-12 05:58:00,38.3,30.4,29.79,SW,232,2.0,-999.0,73,0.00,,,0.01,Wunderground v.1.15,2013-05-12 09:58:00,
2013-05-12 05:59:00,38.3,30.4,29.79,SW,220,0.0,-999.0,73,0.00,,,0.01,Wunderground v.1.15,2013-05-12 09:59:00,
2013-05-12 06:00:00,38.3,30.4,29.79,SW,220,0.0,-999.0,73,0.00,,,0.01,Wunderground v.1.15,2013-05-12 10:00:00,
2013-05-12 06:01:00,38.3,30.4,29.79,ENE,75,0.0,-999.0,73,0.00,,,0.01,Wunderground v.1.15,2013-05-12 10:01:00,
2013-05-12 06:03:00,38.5,30.6,29.79,WSW,241,0.0,-999.0,73,0.00,,,0.01,Wunderground v.1.15,2013-05-12 10:03:00,
2013-05-12 06:05:00,38.5,30.6,29.79,WSW,247,1.0,-999.0,73,0.00,,,0.01,Wunderground v.1.15,2013-05-12 10:05:00,
2013-05-12 06:06:00,38.5,30.6,29.79,NNW,344,0.0,-999.0,73,0.00,,,0.01,Wunderground v.1.15,2013-05-12 10:06:00,
2013-05-12 06:08:00,38.5,30.6,29.79,SW,234,2.0,-999.0,73,0.00,,,0.01,Wunderground v.1.15,2013-05-12 10:08:00,
2013-05-12 06:09:00,38.5,30.6,29.79,NW,315,3.0,-999.0,73,0.00,,,0.01,Wunderground v.1.15,2013-05-12 10:09:00,
2013-05-12 06:10:00,38.5,30.6,29.79,SSW,198,3.0,-999.0,73,0.00,,,0.01,Wunderground v.1.15,2013-05-12 10:10:00,
2013-05-12 06:11:00,38.6,30.7,29.79,NW,311,4.0,-999.0,73,0.00,,,0.01,Wunderground v.1.15,2013-05-12 10:11:00,
2013-05-12 06:12:00,38.6,30.7,29.79,NW,325,4.0,-999.0,73,0.00,,,0.01,Wunderground v.1.15,2013-05-12 10:12:00,
2013-05-12 06:13:00,38.6,30.7,29.79,WNW,298,5.0,-999.0,73,0.00,,,0.01,Wunderground v.1.15,2013-05-12 10:13:00,
2013-05-12 06:14:00,38.5,30.6,29.79,WNW,291,2.0,-999.0,73,0.00,,,0.01,Wunderground v.1.15,2013-05-12 10:14:00,
2013-05-12 06:16:00,38.5,30.6,29.79,SSW,196,3.0,-999.0,73,0.00,,,0.01,Wunderground v.1.15,2013-05-12 10:16:00,
2013-05-12 06:18:00,38.5,30.6,29.79,WSW,244,3.0,-999.0,73,0.00,,,0.01,Wunderground v.1.15,2013-05-12 10:18:00,
2013-05-12 06:19:00,38.5,30.6,29.79,NW,323,2.0,-999.0,73,0.00,,,0.01,Wunderground v.1.15,2013-05-12 10:19:00,
2013-05-12 06:22:00,38.5,30.6,29.79,NW,318,2.0,-999.0,73,0.00,,,0.01,Wunderground v.1.15,2013-05-12 10:22:00,
2013-05-12 06:23:00,38.5,30.6,29.79,NW,319,1.0,-999.0,73,0.00,,,0.01,Wunderground v.1.15,2013-05-12 10:23:00,
2013-05-12 06:25:00,38.3,30.4,29.79,SW,229,0.0,-999.0,73,0.00,,,0.01,Wunderground v.1.15,2013-05-12 10:25:00,
2013-05-12 06:27:00,38.3,30.4,29.79,NW,309,1.0,-999.0,73,0.00,,,0.01,Wunderground v.1.15,2013-05-12 10:27:00,
2013-05-12 06:28:00,38.3,30.4,29.79,West,280,1.0,-999.0,73,0.00,,,0.01,Wunderground v.1.15,2013-05-12 10:28:00,
2013-05-12 06:29:00,38.3,30.4,29.79,WNW,285,3.0,-999.0,73,0.00,,,0.01,Wunderground v.1.15,2013-05-12 10:29:00,
2013-05-12 06:30:00,38.3,30.4,29.80,NNW,339,3.0,-999.0,73,0.00,,,0.01,Wunderground v.1.15,2013-05-12 10:30:00,
2013-05-12 06:32:00,38.3,30.4,29.80,WSW,257,0.0,-999.0,73,0.00,,,0.01,Wunderground v.1.15,2013-05-12 10:32:00,
2013-05-12 06:33:00,38.3,30.4,29.80,WSW,251,1.0,-999.0,73,0.00,,,0.01,Wunderground v.1.15,2013-05-12 10:33:00,
2013-05-12 06:34:00,38.3,30.4,29.80,SSW,209,0.0,-999.0,73,0.00,,,0.01,Wunderground v.1.15,2013-05-12 10:34:00,
2013-05-12 06:35:00,38.2,30.3,29.80,NW,305,0.0,-999.0,73,0.00,,,0.01,Wunderground v.1.15,2013-05-12 10:35:00,
2013-05-12 06:36:00,38.2,30.6,29.80,South,176,0.0,-999.0,74,0.00,,,0.01,Wunderground v.1.15,2013-05-12 10:36:00,
2013-05-12 06:37:00,38.2,30.6,29.80,NW,323,5.0,-999.0,74,0.00,,,0.01,Wunderground v.1.15,2013-05-12 10:37:00,
2013-05-12 06:38:00,38.2,30.6,29.80,West,272,5.0,-999.0,74,0.00,,,0.01,Wunderground v.1.15,2013-05-12 10:38:00,
2013-05-12 06:39:00,38.2,30.6,29.80,NW,312,0.0,-999.0,74,0.00,,,0.01,Wunderground v.1.15,2013-05-12 10:39:00,
2013-05-12 06:40:00,38.2,30.6,29.80,NW,305,0.0,-999.0,74,0.00,,,0.01,Wunderground v.1.15,2013-05-12 10:40:00,
2013-05-12 06:41:00,38.2,30.6,29.80,NW,305,0.0,-999.0,74,0.00,,,0.01,Wunderground v.1.15,2013-05-12 10:41:00,
2013-05-12 06:43:00,38.2,30.3,29.80,NW,323,2.0,-999.0,73,0.00,,,0.01,Wunderground v.1.15,2013-05-12 10:43:00,
2013-05-12 06:44:00,38.2,30.3,29.80,WNW,298,3.0,-999.0,73,0.00,,,0.01,Wunderground v.1.15,2013-05-12 10:44:00,
2013-05-12 06:45:00,38.2,30.3,29.80,WNW,296,1.0,-999.0,73,0.00,,,0.01,Wunderground v.1.15,2013-05-12 10:45:00,
2013-05-12 06:46:00,38.2,30.3,29.80,NW,315,3.0,-999.0,73,0.00,,,0.01,Wunderground v.1.15,2013-05-12 10:46:00,
2013-05-12 06:48:00,38.2,30.3,29.80,WNW,302,3.0,-999.0,73,0.00,,,0.01,Wunderground v.1.15,2013-05-12 10:48:00,
2013-05-12 06:50:00,38.3,30.1,29.80,SSW,203,3.0,-999.0,72,0.00,,,0.01,Wunderground v.1.15,2013-05-12 10:50:00,
2013-05-12 06:51:00,38.3,30.1,29.80,NW,305,2.0,-999.0,72,0.00,,,0.01,Wunderground v.1.15,2013-05-12 10:51:00,
2013-05-12 06:53:00,38.5,30.3,29.80,West,278,0.0,-999.0,72,0.00,,,0.01,Wunderground v.1.15,2013-05-12 10:53:00,
2013-05-12 06:55:00,38.5,30.3,29.80,SW,224,1.0,-999.0,72,0.00,,,0.01,Wunderground v.1.15,2013-05-12 10:55:00,
2013-05-12 06:56:00,38.6,30.0,29.80,West,261,2.0,-999.0,71,0.00,,,0.01,Wunderground v.1.15,2013-05-12 10:56:00,
2013-05-12 06:57:00,38.6,30.0,29.80,SSW,210,1.0,-999.0,71,0.00,,,0.01,Wunderground v.1.15,2013-05-12 10:57:00,
2013-05-12 06:58:00,38.8,30.2,29.80,SSW,210,0.0,-999.0,71,0.00,,,0.01,Wunderground v.1.15,2013-05-12 10:58:00,
2013-05-12 07:00:00,38.8,30.2,29.80,South,189,1.0,-999.0,71,0.00,,,0.01,Wunderground v.1.15,2013-05-12 11:00:00,
2013-05-12 07:02:00,38.8,30.2,29.80,West,272,0.0,-999.0,71,0.00,,,0.01,Wunderground v.1.15,2013-05-12 11:02:00,
2013-05-12 07:04:00,38.8,30.2,29.80,WNW,292,2.0,-999.0,71,0.00,,,0.01,Wunderground v.1.15,2013-05-12 11:04:00,
2013-05-12 07:05:00,38.9,30.3,29.80,WSW,247,5.0,-999.0,71,0.00,,,0.01,Wunderground v.1.15,2013-05-12 11:05:00,
2013-05-12 07:08:00,38.9,30.3,29.80,NW,319,7.0,-999.0,71,0.00,,,0.01,Wunderground v.1.15,2013-05-12 11:08:00,
2013-05-12 07:09:00,38.9,30.3,29.80,NW,306,3.0,-999.0,71,0.00,,,0.01,Wunderground v.1.15,2013-05-12 11:09:00,
2013-05-12 07:11:00,38.9,30.3,29.80,NW,309,4.0,-999.0,71,0.00,,,0.01,Wunderground v.1.15,2013-05-12 11:11:00,
2013-05-12 07:13:00,38.9,30.3,29.80,SW,220,3.0,-999.0,71,0.00,,,0.01,Wunderground v.1.15,2013-05-12 11:13:00,
2013-05-12 07:14:00,38.9,30.3,29.80,NW,308,2.0,-999.0,71,0.00,,,0.01,Wunderground v.1.15,2013-05-12 11:14:00,
2013-05-12 07:16:00,38.9,29.9,29.81,West,272,6.0,-999.0,70,0.00,,,0.01,Wunderground v.1.15,2013-05-12 11:16:00,
2013-05-12 07:18:00,38.9,29.9,29.81,WSW,244,2.0,-999.0,70,0.00,,,0.01,Wunderground v.1.15,2013-05-12 11:18:00,
2013-05-12 07:19:00,38.9,29.9,29.81,SSW,199,3.0,-999.0,70,0.00,,,0.01,Wunderground v.1.15,2013-05-12 11:19:00,
2013-05-12 07:21:00,38.8,29.8,29.81,NW,308,3.0,-999.0,70,0.00,,,0.01,Wunderground v.1.15,2013-05-12 11:21:00,
2013-05-12 07:24:00,38.9,29.9,29.81,West,281,5.0,-999.0,70,0.00,,,0.01,Wunderground v.1.15,2013-05-12 11:24:00,
2013-05-12 07:27:00,38.9,29.9,29.81,NW,325,7.0,-999.0,70,0.00,,,0.01,Wunderground v.1.15,2013-05-12 11:27:00,
2013-05-12 07:29:00,38.9,29.6,29.81,WNW,294,3.0,-999.0,69,0.00,,,0.01,Wunderground v.1.15,2013-05-12 11:29:00,
2013-05-12 07:32:00,39.1,29.8,29.82,NW,308,0.0,-999.0,69,0.00,,,0.01,Wunderground v.1.15,2013-05-12 11:32:00,
2013-05-12 07:34:00,39.1,29.8,29.82,NW,318,3.0,-999.0,69,0.00,,,0.01,Wunderground v.1.15,2013-05-12 11:34:00,
2013-05-12 07:35:00,39.1,29.8,29.82,WNW,291,0.0,-999.0,69,0.00,,,0.01,Wunderground v.1.15,2013-05-12 11:35:00,
2013-05-12 07:38:00,39.1,29.4,29.82,WNW,289,4.0,-999.0,68,0.00,,,0.01,Wunderground v.1.15,2013-05-12 11:38:00,
2013-05-12 07:39:00,39.2,29.5,29.82,WNW,282,3.0,-999.0,68,0.00,,,0.01,Wunderground v.1.15,2013-05-12 11:39:00,
2013-05-12 07:40:00,39.2,29.5,29.82,West,260,7.0,-999.0,68,0.00,,,0.01,Wunderground v.1.15,2013-05-12 11:40:00,
2013-05-12 07:43:00,39.2,29.2,29.82,NW,322,6.0,-999.0,67,0.00,,,0.01,Wunderground v.1.15,2013-05-12 11:43:00,
2013-05-12 07:44:00,39.2,29.2,29.82,NW,319,6.0,-999.0,67,0.00,,,0.01,Wunderground v.1.15,2013-05-12 11:44:00,
2013-05-12 07:45:00,39.2,29.2,29.82,WNW,294,2.0,-999.0,67,0.00,,,0.01,Wunderground v.1.15,2013-05-12 11:45:00,
2013-05-12 07:47:00,39.2,29.2,29.82,WNW,299,3.0,-999.0,67,0.00,,,0.01,Wunderground v.1.15,2013-05-12 11:47:00,
2013-05-12 07:49:00,39.2,28.8,29.82,NW,306,6.0,-999.0,66,0.00,,,0.01,Wunderground v.1.15,2013-05-12 11:49:00,
2013-05-12 07:50:00,39.2,28.8,29.82,NW,306,2.0,-999.0,66,0.00,,,0.02,Wunderground v.1.15,2013-05-12 11:50:00,
2013-05-12 07:51:00,39.2,28.8,29.82,WNW,289,2.0,-999.0,66,0.00,,,0.02,Wunderground v.1.15,2013-05-12 11:51:00,
2013-05-12 07:52:00,39.2,28.8,29.82,NW,312,5.0,-999.0,66,0.00,,,0.02,Wunderground v.1.15,2013-05-12 11:52:00,
2013-05-12 07:55:00,39.3,28.5,29.82,WNW,302,2.0,-999.0,65,0.00,,,0.02,Wunderground v.1.15,2013-05-12 11:55:00,
2013-05-12 07:56:00,39.3,28.5,29.82,NW,315,3.0,-999.0,65,0.00,,,0.02,Wunderground v.1.15,2013-05-12 11:56:00,
2013-05-12 07:57:00,39.3,28.5,29.82,WNW,287,3.0,-999.0,65,0.00,,,0.02,Wunderground v.1.15,2013-05-12 11:57:00,
2013-05-12 07:59:00,39.3,28.5,29.82,West,271,2.0,-999.0,65,0.00,,,0.02,Wunderground v.1.15,2013-05-12 11:59:00,
2013-05-12 08:00:00,39.3,28.5,29.82,WNW,301,1.0,-999.0,65,0.00,,,0.02,Wunderground v.1.15,2013-05-12 12:00:00,
2013-05-12 08:01:00,39.5,29.1,29.82,WNW,299,3.0,-999.0,66,0.00,,,0.02,Wunderground v.1.15,2013-05-12 12:01:00,
2013-05-12 08:02:00,39.5,29.1,29.82,WNW,289,2.0,-999.0,66,0.00,,,0.02,Wunderground v.1.15,2013-05-12 12:02:00,
2013-05-12 08:04:00,39.5,28.7,29.82,NW,316,3.0,-999.0,65,0.00,,,0.02,Wunderground v.1.15,2013-05-12 12:04:00,
2013-05-12 08:06:00,39.5,28.7,29.82,WSW,257,1.0,-999.0,65,0.00,,,0.02,Wunderground v.1.15,2013-05-12 12:06:00,
2013-05-12 08:08:00,39.6,28.8,29.82,WNW,288,0.0,-999.0,65,0.00,,,0.02,Wunderground v.1.15,2013-05-12 12:08:00,
2013-05-12 08:09:00,39.6,28.8,29.82,NW,313,3.0,-999.0,65,0.00,,,0.02,Wunderground v.1.15,2013-05-12 12:09:00,
2013-05-12 08:11:00,39.6,28.8,29.82,WNW,298,3.0,-999.0,65,0.00,,,0.02,Wunderground v.1.15,2013-05-12 12:11:00,
2013-05-12 08:12:00,39.6,28.8,29.82,WNW,298,3.0,-999.0,65,0.00,,,0.02,Wunderground v.1.15,2013-05-12 12:12:00,
2013-05-12 08:14:00,39.6,28.8,29.82,WNW,282,2.0,-999.0,65,0.00,,,0.02,Wunderground v.1.15,2013-05-12 12:14:00,
2013-05-12 08:15:00,39.6,28.8,29.83,WNW,282,2.0,-999.0,65,0.00,,,0.02,Wunderground v.1.15,2013-05-12 12:15:00,
2013-05-12 08:16:00,39.6,28.8,29.83,WNW,282,2.0,-999.0,65,0.00,,,0.02,Wunderground v.1.15,2013-05-12 12:16:00,
2013-05-12 08:17:00,39.6,28.8,29.83,NW,306,4.0,-999.0,65,0.00,,,0.02,Wunderground v.1.15,2013-05-12 12:17:00,
2013-05-12 08:19:00,39.6,28.8,29.83,NW,322,0.0,-999.0,65,0.00,,,0.02,Wunderground v.1.15,2013-05-12 12:19:00,
2013-05-12 08:20:00,39.8,29.0,29.83,WNW,295,0.0,-999.0,65,0.00,,,0.02,Wunderground v.1.15,2013-05-12 12:20:00,
2013-05-12 08:21:00,39.8,29.0,29.83,SSW,200,0.0,-999.0,65,0.00,,,0.02,Wunderground v.1.15,2013-05-12 12:21:00,
2013-05-12 08:22:00,39.8,29.0,29.83,WSW,251,2.0,-999.0,65,0.00,,,0.02,Wunderground v.1.15,2013-05-12 12:22:00,
2013-05-12 08:25:00,39.9,29.1,29.83,NW,306,8.0,-999.0,65,0.00,,,0.02,Wunderground v.1.15,2013-05-12 12:25:00,
2013-05-12 08:26:00,39.9,29.1,29.83,North,0,0.0,-999.0,65,0.00,,,0.02,Wunderground v.1.15,2013-05-12 12:26:00,
2013-05-12 08:27:00,39.9,29.5,29.83,West,265,3.0,-999.0,66,0.00,,,0.02,Wunderground v.1.15,2013-05-12 12:27:00,
2013-05-12 08:28:00,39.9,29.5,29.83,NW,311,3.0,-999.0,66,0.00,,,0.02,Wunderground v.1.15,2013-05-12 12:28:00,
2013-05-12 08:30:00,39.9,28.7,29.83,SW,224,5.0,-999.0,64,0.00,,,0.02,Wunderground v.1.15,2013-05-12 12:30:00,
2013-05-12 08:31:00,39.9,28.7,29.83,WNW,282,6.0,-999.0,64,0.00,,,0.02,Wunderground v.1.15,2013-05-12 12:31:00,
2013-05-12 08:32:00,39.9,28.7,29.83,NW,311,3.0,-999.0,64,0.00,,,0.02,Wunderground v.1.15,2013-05-12 12:32:00,
2013-05-12 08:33:00,39.9,28.7,29.83,WNW,289,6.0,-999.0,64,0.00,,,0.02,Wunderground v.1.15,2013-05-12 12:33:00,
2013-05-12 08:35:00,39.9,28.7,29.83,NW,318,2.0,-999.0,64,0.00,,,0.02,Wunderground v.1.15,2013-05-12 12:35:00,
2013-05-12 08:36:00,40.1,28.9,29.83,NW,322,5.0,-999.0,64,0.00,,,0.02,Wunderground v.1.15,2013-05-12 12:36:00,
2013-05-12 08:38:00,40.1,28.9,29.83,NW,309,3.0,-999.0,64,0.00,,,0.02,Wunderground v.1.15,2013-05-12 12:38:00,
2013-05-12 08:39:00,40.1,28.9,29.83,WSW,250,5.0,-999.0,64,0.00,,,0.02,Wunderground v.1.15,2013-05-12 12:39:00,
2013-05-12 08:41:00,40.2,29.0,29.83,NNW,332,1.0,-999.0,64,0.00,,,0.02,Wunderground v.1.15,2013-05-12 12:41:00,
2013-05-12 08:42:00,40.2,29.0,29.83,NNW,332,1.0,-999.0,64,0.00,,,0.02,Wunderground v.1.15,2013-05-12 12:42:00,
2013-05-12 08:43:00,40.5,28.9,29.83,NW,309,6.0,-999.0,63,0.00,,,0.02,Wunderground v.1.15,2013-05-12 12:43:00,
2013-05-12 08:44:00,40.5,28.9,29.83,WSW,251,4.0,-999.0,63,0.00,,,0.02,Wunderground v.1.15,2013-05-12 12:44:00,
2013-05-12 08:45:00,40.5,28.9,29.82,NW,306,0.0,-999.0,63,0.00,,,0.02,Wunderground v.1.15,2013-05-12 12:45:00,
2013-05-12 08:46:00,40.6,29.0,29.82,NW,315,2.0,-999.0,63,0.00,,,0.02,Wunderground v.1.15,2013-05-12 12:46:00,
2013-05-12 08:48:00,40.6,28.6,29.82,WNW,296,2.0,-999.0,62,0.00,,,0.02,Wunderground v.1.15,2013-05-12 12:48:00,
2013-05-12 08:49:00,40.6,28.6,29.82,WNW,302,3.0,-999.0,62,0.00,,,0.02,Wunderground v.1.15,2013-05-12 12:49:00,
2013-05-12 08:50:00,40.8,28.8,29.82,West,264,2.0,-999.0,62,0.00,,,0.02,Wunderground v.1.15,2013-05-12 12:50:00,
2013-05-12 08:51:00,40.8,28.8,29.82,WSW,258,7.0,-999.0,62,0.00,,,0.02,Wunderground v.1.15,2013-05-12 12:51:00,
2013-05-12 08:53:00,40.9,28.5,29.82,NW,313,6.0,-999.0,61,0.00,,,0.02,Wunderground v.1.15,2013-05-12 12:53:00,
2013-05-12 08:54:00,41.1,28.7,29.82,NW,311,5.0,-999.0,61,0.00,,,0.02,Wunderground v.1.15,2013-05-12 12:54:00,
2013-05-12 08:55:00,41.1,28.7,29.82,SSW,209,3.0,-999.0,61,0.00,,,0.02,Wunderground v.1.15,2013-05-12 12:55:00,
2013-05-12 08:57:00,41.2,28.8,29.82,SSW,210,3.0,-999.0,61,0.00,,,0.02,Wunderground v.1.15,2013-05-12 12:57:00,
2013-05-12 08:58:00,41.2,28.4,29.82,NW,309,1.0,-999.0,60,0.00,,,0.02,Wunderground v.1.15,2013-05-12 12:58:00,
2013-05-12 08:59:00,41.3,28.4,29.82,NW,304,0.0,-999.0,60,0.00,,,0.02,Wunderground v.1.15,2013-05-12 12:59:00,
2013-05-12 09:00:00,41.3,28.4,29.83,SSW,210,12.0,-999.0,60,0.00,,,0.02,Wunderground v.1.15,2013-05-12 13:00:00,
2013-05-12 09:01:00,41.5,28.6,29.83,West,270,3.0,-999.0,60,0.00,,,0.02,Wunderground v.1.15,2013-05-12 13:01:00,
2013-05-12 09:02:00,41.5,28.6,29.83,NW,320,12.0,-999.0,60,0.00,,,0.02,Wunderground v.1.15,2013-05-12 13:02:00,
2013-05-12 09:03:00,41.5,28.6,29.83,West,274,4.0,-999.0,60,0.00,,,0.02,Wunderground v.1.15,2013-05-12 13:03:00,
2013-05-12 09:05:00,41.6,27.9,29.83,WNW,301,3.0,-999.0,58,0.00,,,0.02,Wunderground v.1.15,2013-05-12 13:05:00,
2013-05-12 09:06:00,41.5,27.0,29.83,West,267,6.0,-999.0,56,0.00,,,0.02,Wunderground v.1.15,2013-05-12 13:06:00,
2013-05-12 09:08:00,41.5,27.0,29.83,WNW,295,6.0,-999.0,56,0.00,,,0.02,Wunderground v.1.15,2013-05-12 13:08:00,
2013-05-12 09:09:00,41.6,27.1,29.83,WNW,296,5.0,-999.0,56,0.00,,,0.02,Wunderground v.1.15,2013-05-12 13:09:00,
2013-05-12 09:11:00,41.6,27.5,29.83,NW,306,11.0,-999.0,57,0.00,,,0.02,Wunderground v.1.15,2013-05-12 13:11:00,
2013-05-12 09:12:00,41.6,27.5,29.83,WNW,301,5.0,-999.0,57,0.00,,,0.02,Wunderground v.1.15,2013-05-12 13:12:00,
2013-05-12 09:13:00,41.6,27.5,29.83,NNW,330,5.0,-999.0,57,0.00,,,0.02,Wunderground v.1.15,2013-05-12 13:13:00,
2013-05-12 09:14:00,41.6,27.5,29.83,NW,323,5.0,-999.0,57,0.00,,,0.02,Wunderground v.1.15,2013-05-12 13:14:00,
2013-05-12 09:17:00,41.6,27.5,29.84,WNW,298,3.0,-999.0,57,0.00,,,0.02,Wunderground v.1.15,2013-05-12 13:17:00,
2013-05-12 09:18:00,41.6,27.5,29.84,NNW,330,2.0,-999.0,57,0.00,,,0.02,Wunderground v.1.15,2013-05-12 13:18:00,
2013-05-12 09:19:00,41.8,27.7,29.84,WNW,299,3.0,-999.0,57,0.00,,,0.02,Wunderground v.1.15,2013-05-12 13:19:00,
2013-05-12 09:23:00,42.1,27.9,29.84,NW,308,2.0,-999.0,57,0.00,,,0.02,Wunderground v.1.15,2013-05-12 13:23:00,
2013-05-12 09:24:00,42.1,27.9,29.84,NW,318,5.0,-999.0,57,0.00,,,0.02,Wunderground v.1.15,2013-05-12 13:24:00,
2013-05-12 09:28:00,42.6,28.4,29.84,NW,311,3.0,-999.0,57,0.00,,,0.02,Wunderground v.1.15,2013-05-12 13:28:00,
2013-05-12 09:29:00,42.6,28.4,29.84,West,277,3.0,-999.0,57,0.00,,,0.02,Wunderground v.1.15,2013-05-12 13:29:00,
2013-05-12 09:30:00,42.8,28.6,29.83,West,278,6.0,-999.0,57,0.00,,,0.02,Wunderground v.1.15,2013-05-12 13:30:00,
2013-05-12 09:33:00,42.8,28.6,29.83,NW,315,2.0,-999.0,57,0.00,,,0.02,Wunderground v.1.15,2013-05-12 13:33:00,
2013-05-12 09:34:00,42.8,28.6,29.83,WNW,287,0.0,-999.0,57,0.00,,,0.02,Wunderground v.1.15,2013-05-12 13:34:00,
2013-05-12 09:35:00,42.8,28.6,29.83,WNW,288,0.0,-999.0,57,0.00,,,0.02,Wunderground v.1.15,2013-05-12 13:35:00,
2013-05-12 09:36:00,42.8,28.6,29.83,NW,326,1.0,-999.0,57,0.00,,,0.02,Wunderground v.1.15,2013-05-12 13:36:00,
2013-05-12 09:39:00,42.6,28.0,29.83,NW,312,2.0,-999.0,56,0.00,,,0.02,Wunderground v.1.15,2013-05-12 13:39:00,
2013-05-12 09:40:00,42.5,28.3,29.83,NW,311,0.0,-999.0,57,0.00,,,0.02,Wunderground v.1.15,2013-05-12 13:40:00,
2013-05-12 09:42:00,42.5,28.3,29.83,NW,313,2.0,-999.0,57,0.00,,,0.02,Wunderground v.1.15,2013-05-12 13:42:00,
2013-05-12 09:44:00,42.5,28.8,29.83,SW,227,2.0,-999.0,58,0.00,,,0.02,Wunderground v.1.15,2013-05-12 13:44:00,
2013-05-12 09:45:00,42.5,28.8,29.84,NW,312,6.0,-999.0,58,0.00,,,0.02,Wunderground v.1.15,2013-05-12 13:45:00,
2013-05-12 09:46:00,42.5,28.8,29.84,NW,306,4.0,-999.0,58,0.00,,,0.02,Wunderground v.1.15,2013-05-12 13:46:00,
2013-05-12 09:47:00,42.5,28.8,29.84,NW,306,4.0,-999.0,58,0.00,,,0.02,Wunderground v.1.15,2013-05-12 13:47:00,
2013-05-12 09:49:00,42.5,28.3,29.84,NW,318,5.0,-999.0,57,0.00,,,0.02,Wunderground v.1.15,2013-05-12 13:49:00,
2013-05-12 09:50:00,42.5,28.8,29.84,WNW,284,3.0,-999.0,58,0.00,,,0.02,Wunderground v.1.15,2013-05-12 13:50:00,
2013-05-12 09:51:00,42.5,28.8,29.84,WNW,298,1.0,-999.0,58,0.00,,,0.02,Wunderground v.1.15,2013-05-12 13:51:00,
2013-05-12 09:53:00,42.5,29.2,29.84,NW,304,7.0,-999.0,59,0.00,,,0.02,Wunderground v.1.15,2013-05-12 13:53:00,
2013-05-12 09:54:00,42.5,29.2,29.84,WNW,282,1.0,-999.0,59,0.00,,,0.02,Wunderground v.1.15,2013-05-12 13:54:00,
2013-05-12 09:56:00,42.5,29.6,29.84,WNW,292,2.0,-999.0,60,0.00,,,0.02,Wunderground v.1.15,2013-05-12 13:56:00,
2013-05-12 09:57:00,42.5,29.6,29.84,NW,312,8.0,-999.0,60,0.00,,,0.02,Wunderground v.1.15,2013-05-12 13:57:00,
2013-05-12 09:59:00,42.2,29.7,29.84,WNW,301,4.0,-999.0,61,0.00,,,0.02,Wunderground v.1.15,2013-05-12 13:59:00,
2013-05-12 10:00:00,42.1,30.0,29.84,NW,316,3.0,-999.0,62,0.00,,,0.02,Wunderground v.1.15,2013-05-12 14:00:00,
2013-05-12 10:01:00,42.1,30.0,29.84,NW,315,2.0,-999.0,62,0.00,,,0.02,Wunderground v.1.15,2013-05-12 14:01:00,
2013-05-12 10:03:00,42.1,30.0,29.84,NW,311,7.0,-999.0,62,0.00,,,0.02,Wunderground v.1.15,2013-05-12 14:03:00,
2013-05-12 10:05:00,42.1,30.0,29.84,WNW,299,6.0,-999.0,62,0.00,,,0.02,Wunderground v.1.15,2013-05-12 14:05:00,
2013-05-12 10:06:00,42.1,29.6,29.84,WNW,299,2.0,-999.0,61,0.00,,,0.02,Wunderground v.1.15,2013-05-12 14:06:00,
2013-05-12 10:08:00,42.1,29.6,29.84,NW,305,2.0,-999.0,61,0.00,,,0.02,Wunderground v.1.15,2013-05-12 14:08:00,
2013-05-12 10:10:00,42.1,29.6,29.84,WNW,296,5.0,-999.0,61,0.00,,,0.02,Wunderground v.1.15,2013-05-12 14:10:00,
2013-05-12 10:12:00,42.1,29.6,29.84,West,281,2.0,-999.0,61,0.00,,,0.02,Wunderground v.1.15,2013-05-12 14:12:00,
2013-05-12 10:13:00,42.2,29.7,29.84,West,280,0.0,-999.0,61,0.00,,,0.02,Wunderground v.1.15,2013-05-12 14:13:00,
2013-05-12 10:14:00,42.2,29.7,29.84,West,270,2.0,-999.0,61,0.00,,,0.02,Wunderground v.1.15,2013-05-12 14:14:00,
2013-05-12 10:16:00,42.2,29.3,29.85,West,261,6.0,-999.0,60,0.00,,,0.02,Wunderground v.1.15,2013-05-12 14:16:00,
2013-05-12 10:17:00,42.2,29.3,29.85,WNW,294,2.0,-999.0,60,0.00,,,0.02,Wunderground v.1.15,2013-05-12 14:17:00,
2013-05-12 10:19:00,42.2,28.9,29.85,West,280,5.0,-999.0,59,0.00,,,0.02,Wunderground v.1.15,2013-05-12 14:19:00,
2013-05-12 10:20:00,42.2,28.9,29.85,WSW,248,4.0,-999.0,59,0.00,,,0.02,Wunderground v.1.15,2013-05-12 14:20:00,
2013-05-12 10:21:00,42.1,28.8,29.85,NW,312,9.0,-999.0,59,0.00,,,0.02,Wunderground v.1.15,2013-05-12 14:21:00,
2013-05-12 10:23:00,42.1,28.8,29.85,NW,313,5.0,-999.0,59,0.00,,,0.02,Wunderground v.1.15,2013-05-12 14:23:00,
2013-05-12 10:24:00,41.9,28.6,29.85,WNW,288,3.0,-999.0,59,0.00,,,0.02,Wunderground v.1.15,2013-05-12 14:24:00,
2013-05-12 10:25:00,41.9,28.6,29.85,West,274,2.0,-999.0,59,0.00,,,0.02,Wunderground v.1.15,2013-05-12 14:25:00,
2013-05-12 10:27:00,41.9,29.0,29.85,West,272,5.0,-999.0,60,0.00,,,0.02,Wunderground v.1.15,2013-05-12 14:27:00,
2013-05-12 10:29:00,41.9,29.0,29.85,WNW,299,6.0,-999.0,60,0.00,,,0.02,Wunderground v.1.15,2013-05-12 14:29:00,
2013-05-12 10:30:00,41.9,29.0,29.85,WNW,299,6.0,-999.0,60,0.00,,,0.02,Wunderground v.1.15,2013-05-12 14:30:00,
2013-05-12 10:32:00,41.8,28.5,29.85,NW,309,2.0,-999.0,59,0.00,,,0.02,Wunderground v.1.15,2013-05-12 14:32:00,
2013-05-12 10:35:00,41.8,28.5,29.85,NW,316,6.0,-999.0,59,0.00,,,0.02,Wunderground v.1.15,2013-05-12 14:35:00,
2013-05-12 10:36:00,41.8,28.5,29.85,WNW,287,5.0,-999.0,59,0.00,,,0.02,Wunderground v.1.15,2013-05-12 14:36:00,
2013-05-12 10:37:00,41.8,28.5,29.85,NW,315,0.0,-999.0,59,0.00,,,0.02,Wunderground v.1.15,2013-05-12 14:37:00,
2013-05-12 10:40:00,42.1,28.8,29.85,SW,223,6.0,-999.0,59,0.00,,,0.02,Wunderground v.1.15,2013-05-12 14:40:00,
2013-05-12 10:41:00,42.1,28.8,29.85,WSW,258,5.0,-999.0,59,0.00,,,0.02,Wunderground v.1.15,2013-05-12 14:41:00,
2013-05-12 10:43:00,42.1,27.9,29.85,NW,312,12.0,-999.0,57,0.00,,,0.02,Wunderground v.1.15,2013-05-12 14:43:00,
2013-05-12 10:45:00,42.2,28.0,29.85,WNW,288,2.0,-999.0,57,0.00,,,0.02,Wunderground v.1.15,2013-05-12 14:45:00,
2013-05-12 10:46:00,42.2,28.0,29.85,NNW,333,5.0,-999.0,57,0.00,,,0.02,Wunderground v.1.15,2013-05-12 14:46:00,
2013-05-12 10:47:00,42.2,28.0,29.85,West,272,4.0,-999.0,57,0.00,,,0.02,Wunderground v.1.15,2013-05-12 14:47:00,
2013-05-12 10:49:00,42.2,27.6,29.85,WNW,282,5.0,-999.0,56,0.00,,,0.02,Wunderground v.1.15,2013-05-12 14:49:00,
2013-05-12 10:50:00,42.2,27.6,29.85,NW,320,6.0,-999.0,56,0.00,,,0.02,Wunderground v.1.15,2013-05-12 14:50:00,
2013-05-12 10:51:00,42.2,27.6,29.85,NW,313,5.0,-999.0,56,0.00,,,0.02,Wunderground v.1.15,2013-05-12 14:51:00,
2013-05-12 10:52:00,42.2,27.6,29.85,NW,309,3.0,-999.0,56,0.00,,,0.02,Wunderground v.1.15,2013-05-12 14:52:00,
2013-05-12 10:53:00,42.2,27.6,29.85,West,268,2.0,-999.0,56,0.00,,,0.02,Wunderground v.1.15,2013-05-12 14:53:00,
2013-05-12 10:54:00,42.2,27.6,29.85,NW,323,2.0,-999.0,56,0.00,,,0.02,Wunderground v.1.15,2013-05-12 14:54:00,
2013-05-12 10:56:00,42.3,28.1,29.85,WNW,298,3.0,-999.0,57,0.00,,,0.02,Wunderground v.1.15,2013-05-12 14:56:00,
2013-05-12 10:57:00,42.3,28.1,29.85,West,265,7.0,-999.0,57,0.00,,,0.02,Wunderground v.1.15,2013-05-12 14:57:00,
2013-05-12 10:59:00,42.3,28.6,29.85,SSW,206,3.0,-999.0,58,0.00,,,0.02,Wunderground v.1.15,2013-05-12 14:59:00,
2013-05-12 11:01:00,42.5,28.8,29.86,West,281,1.0,-999.0,58,0.00,,,0.02,Wunderground v.1.15,2013-05-12 15:01:00,
2013-05-12 11:02:00,42.5,28.8,29.86,West,281,1.0,-999.0,58,0.00,,,0.02,Wunderground v.1.15,2013-05-12 15:02:00,
2013-05-12 11:04:00,42.6,28.8,29.86,WNW,282,5.0,-999.0,58,0.00,,,0.02,Wunderground v.1.15,2013-05-12 15:04:00,
2013-05-12 11:05:00,42.6,28.8,29.86,WNW,282,5.0,-999.0,58,0.00,,,0.02,Wunderground v.1.15,2013-05-12 15:05:00,
2013-05-12 11:07:00,42.8,28.2,29.86,WNW,295,5.0,-999.0,56,0.00,,,0.02,Wunderground v.1.15,2013-05-12 15:07:00,
2013-05-12 11:09:00,42.8,28.2,29.86,NW,311,7.0,-999.0,56,0.00,,,0.02,Wunderground v.1.15,2013-05-12 15:09:00,
2013-05-12 11:10:00,42.8,28.2,29.86,WNW,301,6.0,-999.0,56,0.00,,,0.02,Wunderground v.1.15,2013-05-12 15:10:00,
2013-05-12 11:12:00,42.9,27.8,29.86,NW,306,2.0,-999.0,55,0.00,,,0.02,Wunderground v.1.15,2013-05-12 15:12:00,
2013-05-12 11:14:00,43.1,28.5,29.86,NW,306,5.0,-999.0,56,0.00,,,0.02,Wunderground v.1.15,2013-05-12 15:14:00,
2013-05-12 11:15:00,43.1,28.5,29.86,WNW,289,2.0,-999.0,56,0.00,,,0.02,Wunderground v.1.15,2013-05-12 15:15:00,
2013-05-12 11:17:00,43.1,28.5,29.86,West,281,0.0,-999.0,56,0.00,,,0.02,Wunderground v.1.15,2013-05-12 15:17:00,
2013-05-12 11:19:00,43.1,28.5,29.86,SW,233,5.0,-999.0,56,0.00,,,0.02,Wunderground v.1.15,2013-05-12 15:19:00,
2013-05-12 11:20:00,43.2,29.0,29.86,NW,325,0.0,-999.0,57,0.00,,,0.02,Wunderground v.1.15,2013-05-12 15:20:00,
2013-05-12 11:21:00,43.2,29.0,29.86,West,261,1.0,-999.0,57,0.00,,,0.02,Wunderground v.1.15,2013-05-12 15:21:00,
2013-05-12 11:23:00,43.2,29.0,29.86,NW,318,2.0,-999.0,57,0.00,,,0.02,Wunderground v.1.15,2013-05-12 15:23:00,
2013-05-12 11:25:00,43.5,29.3,29.86,NW,306,6.0,-999.0,57,0.00,,,0.02,Wunderground v.1.15,2013-05-12 15:25:00,
2013-05-12 11:26:00,43.6,28.9,29.86,WNW,299,0.0,-999.0,56,0.00,,,0.02,Wunderground v.1.15,2013-05-12 15:26:00,
2013-05-12 11:28:00,44.1,30.3,29.86,NW,325,4.0,-999.0,58,0.00,,,0.02,Wunderground v.1.15,2013-05-12 15:28:00,
2013-05-12 11:30:00,44.3,29.6,29.85,NW,306,5.0,-999.0,56,0.00,,,0.02,Wunderground v.1.15,2013-05-12 15:30:00,
2013-05-12 11:31:00,44.3,29.6,29.85,NW,315,5.0,-999.0,56,0.00,,,0.02,Wunderground v.1.15,2013-05-12 15:31:00,
2013-05-12 11:33:00,44.5,29.8,29.85,NW,308,5.0,-999.0,56,0.00,,,0.02,Wunderground v.1.15,2013-05-12 15:33:00,
2013-05-12 11:34:00,44.6,29.0,29.85,NW,313,6.0,-999.0,54,0.00,,,0.02,Wunderground v.1.15,2013-05-12 15:34:00,
2013-05-12 11:35:00,44.6,29.0,29.85,NW,320,6.0,-999.0,54,0.00,,,0.02,Wunderground v.1.15,2013-05-12 15:35:00,
2013-05-12 11:36:00,44.6,29.0,29.85,NW,311,1.0,-999.0,54,0.00,,,0.02,Wunderground v.1.15,2013-05-12 15:36:00,
2013-05-12 11:37:00,44.6,29.0,29.85,NW,311,0.0,-999.0,54,0.00,,,0.02,Wunderground v.1.15,2013-05-12 15:37:00,
2013-05-12 11:38:00,44.6,29.0,29.85,NW,311,3.0,-999.0,54,0.00,,,0.02,Wunderground v.1.15,2013-05-12 15:38:00,
2013-05-12 11:40:00,44.6,29.0,29.85,North,0,6.0,-999.0,54,0.00,,,0.02,Wunderground v.1.15,2013-05-12 15:40:00,
2013-05-12 11:41:00,44.5,28.9,29.85,WNW,289,1.0,-999.0,54,0.00,,,0.02,Wunderground v.1.15,2013-05-12 15:41:00,
2013-05-12 11:42:00,44.5,28.0,29.85,SSW,205,3.0,-999.0,52,0.00,,,0.02,Wunderground v.1.15,2013-05-12 15:42:00,
2013-05-12 11:44:00,44.5,28.0,29.85,NW,313,1.0,-999.0,52,0.00,,,0.02,Wunderground v.1.15,2013-05-12 15:44:00,
2013-05-12 11:46:00,44.5,28.4,29.86,NW,311,7.0,-999.0,53,0.00,,,0.02,Wunderground v.1.15,2013-05-12 15:46:00,
2013-05-12 11:47:00,44.3,27.8,29.86,West,278,2.0,-999.0,52,0.00,,,0.02,Wunderground v.1.15,2013-05-12 15:47:00,
2013-05-12 11:49:00,44.3,28.2,29.86,WSW,251,1.0,-999.0,53,0.00,,,0.02,Wunderground v.1.15,2013-05-12 15:49:00,
2013-05-12 11:51:00,44.5,28.4,29.86,WSW,243,2.0,-999.0,53,0.00,,,0.02,Wunderground v.1.15,2013-05-12 15:51:00,
2013-05-12 11:52:00,44.5,28.4,29.86,NW,308,3.0,-999.0,53,0.00,,,0.02,Wunderground v.1.15,2013-05-12 15:52:00,
2013-05-12 11:53:00,44.6,28.5,29.86,West,271,0.0,-999.0,53,0.00,,,0.02,Wunderground v.1.15,2013-05-12 15:53:00,
2013-05-12 11:54:00,44.6,28.5,29.86,WNW,296,3.0,-999.0,53,0.00,,,0.02,Wunderground v.1.15,2013-05-12 15:54:00,
2013-05-12 11:55:00,44.6,28.5,29.86,West,278,0.0,-999.0,53,0.00,,,0.02,Wunderground v.1.15,2013-05-12 15:55:00,
2013-05-12 11:56:00,44.9,28.8,29.86,WNW,302,8.0,-999.0,53,0.00,,,0.02,Wunderground v.1.15,2013-05-12 15:56:00,
2013-05-12 11:58:00,44.9,28.8,29.86,West,265,2.0,-999.0,53,0.00,,,0.02,Wunderground v.1.15,2013-05-12 15:58:00,
2013-05-12 11:59:00,45.1,29.0,29.86,North,357,2.0,-999.0,53,0.00,,,0.02,Wunderground v.1.15,2013-05-12 15:59:00,
2013-05-12 12:00:00,45.4,29.3,29.86,NNW,340,3.0,-999.0,53,0.00,,,0.02,Wunderground v.1.15,2013-05-12 16:00:00,
2013-05-12 12:02:00,45.5,28.4,29.86,NW,318,6.0,-999.0,51,0.00,,,0.02,Wunderground v.1.15,2013-05-12 16:02:00,
2013-05-12 12:03:00,45.5,28.4,29.86,WNW,298,2.0,-999.0,51,0.00,,,0.02,Wunderground v.1.15,2013-05-12 16:03:00,
2013-05-12 12:04:00,45.5,28.4,29.86,North,3,5.0,-999.0,51,0.00,,,0.02,Wunderground v.1.15,2013-05-12 16:04:00,
2013-05-12 12:05:00,45.7,27.6,29.86,NNW,332,8.0,-999.0,49,0.00,,,0.02,Wunderground v.1.15,2013-05-12 16:05:00,
2013-05-12 12:07:00,45.7,27.6,29.86,WNW,296,5.0,-999.0,49,0.00,,,0.02,Wunderground v.1.15,2013-05-12 16:07:00,
2013-05-12 12:08:00,45.7,27.6,29.86,WNW,287,2.0,-999.0,49,0.00,,,0.02,Wunderground v.1.15,2013-05-12 16:08:00,
2013-05-12 12:09:00,45.5,26.9,29.86,NW,313,3.0,-999.0,48,0.00,,,0.02,Wunderground v.1.15,2013-05-12 16:09:00,
2013-05-12 12:11:00,45.4,26.8,29.86,NW,322,11.0,-999.0,48,0.00,,,0.02,Wunderground v.1.15,2013-05-12 16:11:00,
2013-05-12 12:12:00,45.2,26.7,29.86,SW,236,4.0,-999.0,48,0.00,,,0.02,Wunderground v.1.15,2013-05-12 16:12:00,
2013-05-12 12:14:00,45.1,27.6,29.86,SW,217,3.0,-999.0,50,0.00,,,0.02,Wunderground v.1.15,2013-05-12 16:14:00,
2013-05-12 12:15:00,44.9,27.4,29.86,WNW,288,2.0,-999.0,50,0.00,,,0.02,Wunderground v.1.15,2013-05-12 16:15:00,
2013-05-12 12:17:00,44.9,27.4,29.86,NW,316,2.0,-999.0,50,0.00,,,0.02,Wunderground v.1.15,2013-05-12 16:17:00,
2013-05-12 12:18:00,45.1,28.5,29.86,NW,311,3.0,-999.0,52,0.00,,,0.02,Wunderground v.1.15,2013-05-12 16:18:00,
2013-05-12 12:19:00,45.2,28.6,29.86,WNW,284,1.0,-999.0,52,0.00,,,0.02,Wunderground v.1.15,2013-05-12 16:19:00,
2013-05-12 12:20:00,45.2,28.6,29.86,West,274,3.0,-999.0,52,0.00,,,0.02,Wunderground v.1.15,2013-05-12 16:20:00,
2013-05-12 12:22:00,45.2,27.2,29.86,WNW,282,8.0,-999.0,49,0.00,,,0.02,Wunderground v.1.15,2013-05-12 16:22:00,
2013-05-12 12:23:00,45.2,27.2,29.86,NW,316,2.0,-999.0,49,0.00,,,0.02,Wunderground v.1.15,2013-05-12 16:23:00,
2013-05-12 12:24:00,45.2,27.2,29.86,WNW,285,5.0,-999.0,49,0.00,,,0.02,Wunderground v.1.15,2013-05-12 16:24:00,
2013-05-12 12:25:00,45.2,27.2,29.86,West,260,3.0,-999.0,49,0.00,,,0.02,Wunderground v.1.15,2013-05-12 16:25:00,
2013-05-12 12:26:00,45.2,27.2,29.86,NW,311,6.0,-999.0,49,0.00,,,0.02,Wunderground v.1.15,2013-05-12 16:26:00,
2013-05-12 12:27:00,45.1,27.1,29.86,WNW,299,2.0,-999.0,49,0.00,,,0.02,Wunderground v.1.15,2013-05-12 16:27:00,
2013-05-12 12:28:00,45.1,27.1,29.86,WNW,287,3.0,-999.0,49,0.00,,,0.02,Wunderground v.1.15,2013-05-12 16:28:00,
2013-05-12 12:29:00,45.1,27.6,29.86,WNW,302,0.0,-999.0,50,0.00,,,0.02,Wunderground v.1.15,2013-05-12 16:29:00,
2013-05-12 12:30:00,45.1,27.6,29.86,WNW,302,2.0,-999.0,50,0.00,,,0.02,Wunderground v.1.15,2013-05-12 16:30:00,
2013-05-12 12:31:00,45.1,27.6,29.86,WNW,291,2.0,-999.0,50,0.00,,,0.02,Wunderground v.1.15,2013-05-12 16:31:00,
2013-05-12 12:33:00,45.1,27.6,29.86,WNW,299,1.0,-999.0,50,0.00,,,0.02,Wunderground v.1.15,2013-05-12 16:33:00,
2013-05-12 12:35:00,45.1,27.6,29.86,NW,322,7.0,-999.0,50,0.00,,,0.02,Wunderground v.1.15,2013-05-12 16:35:00,
2013-05-12 12:37:00,44.9,27.4,29.86,WNW,285,7.0,-999.0,50,0.00,,,0.02,Wunderground v.1.15,2013-05-12 16:37:00,
2013-05-12 12:38:00,44.9,27.4,29.86,NW,315,2.0,-999.0,50,0.00,,,0.02,Wunderground v.1.15,2013-05-12 16:38:00,
2013-05-12 12:39:00,45.1,27.6,29.86,NW,304,4.0,-999.0,50,0.00,,,0.02,Wunderground v.1.15,2013-05-12 16:39:00,
2013-05-12 12:40:00,45.1,27.6,29.86,West,281,0.0,-999.0,50,0.00,,,0.02,Wunderground v.1.15,2013-05-12 16:40:00,
2013-05-12 12:42:00,45.5,27.9,29.86,North,353,4.0,-999.0,50,0.00,,,0.02,Wunderground v.1.15,2013-05-12 16:42:00,
2013-05-12 12:43:00,45.7,28.1,29.86,WNW,295,2.0,-999.0,50,0.00,,,0.02,Wunderground v.1.15,2013-05-12 16:43:00,
2013-05-12 12:44:00,45.7,27.1,29.86,NNW,343,2.0,-999.0,48,0.00,,,0.02,Wunderground v.1.15,2013-05-12 16:44:00,
2013-05-12 12:45:00,45.7,27.1,29.86,WSW,253,2.0,-999.0,48,0.00,,,0.02,Wunderground v.1.15,2013-05-12 16:45:00,
2013-05-12 12:48:00,45.8,26.2,29.86,West,280,0.0,-999.0,46,0.00,,,0.02,Wunderground v.1.15,2013-05-12 16:48:00,
2013-05-12 12:49:00,45.7,26.1,29.86,NW,316,3.0,-999.0,46,0.00,,,0.02,Wunderground v.1.15,2013-05-12 16:49:00,
2013-05-12 12:50:00,45.7,27.1,29.86,NW,316,0.0,-999.0,48,0.00,,,0.02,Wunderground v.1.15,2013-05-12 16:50:00,
2013-05-12 12:51:00,45.7,27.1,29.86,SW,223,3.0,-999.0,48,0.00,,,0.02,Wunderground v.1.15,2013-05-12 16:51:00,
2013-05-12 12:53:00,45.7,27.1,29.86,WNW,294,5.0,-999.0,48,0.00,,,0.02,Wunderground v.1.15,2013-05-12 16:53:00,
2013-05-12 12:54:00,45.7,27.6,29.86,North,349,3.0,-999.0,49,0.00,,,0.02,Wunderground v.1.15,2013-05-12 16:54:00,
2013-05-12 12:55:00,45.7,27.6,29.86,WSW,253,3.0,-999.0,49,0.00,,,0.02,Wunderground v.1.15,2013-05-12 16:55:00,
2013-05-12 12:56:00,45.7,27.6,29.86,WNW,299,5.0,-999.0,49,0.00,,,0.02,Wunderground v.1.15,2013-05-12 16:56:00,
2013-05-12 12:57:00,45.8,28.2,29.86,WNW,302,8.0,-999.0,50,0.00,,,0.02,Wunderground v.1.15,2013-05-12 16:57:00,
2013-05-12 12:59:00,45.8,28.7,29.86,WSW,243,3.0,-999.0,51,0.00,,,0.02,Wunderground v.1.15,2013-05-12 16:59:00,
2013-05-12 13:01:00,46.4,28.3,29.86,NW,323,2.0,-999.0,49,0.00,,,0.02,Wunderground v.1.15,2013-05-12 17:01:00,
2013-05-12 13:02:00,46.4,28.3,29.86,NW,319,11.0,-999.0,49,0.00,,,0.02,Wunderground v.1.15,2013-05-12 17:02:00,
2013-05-12 13:04:00,46.7,25.4,29.86,NW,318,5.0,-999.0,43,0.00,,,0.02,Wunderground v.1.15,2013-05-12 17:04:00,
2013-05-12 13:05:00,46.8,25.5,29.86,WNW,302,1.0,-999.0,43,0.00,,,0.02,Wunderground v.1.15,2013-05-12 17:05:00,
2013-05-12 13:07:00,47.0,25.6,29.86,WSW,258,5.0,-999.0,43,0.00,,,0.02,Wunderground v.1.15,2013-05-12 17:07:00,
2013-05-12 13:08:00,47.1,25.7,29.86,NW,320,4.0,-999.0,43,0.00,,,0.02,Wunderground v.1.15,2013-05-12 17:08:00,
2013-05-12 13:10:00,47.1,27.9,29.86,NW,312,8.0,-999.0,47,0.00,,,0.02,Wunderground v.1.15,2013-05-12 17:10:00,
2013-05-12 13:13:00,47.1,27.9,29.86,NNW,329,2.0,-999.0,47,0.00,,,0.02,Wunderground v.1.15,2013-05-12 17:13:00,
2013-05-12 13:14:00,47.1,27.4,29.86,West,280,6.0,-999.0,46,0.00,,,0.02,Wunderground v.1.15,2013-05-12 17:14:00,
2013-05-12 13:15:00,47.0,27.3,29.86,NW,315,7.0,-999.0,46,0.00,,,0.02,Wunderground v.1.15,2013-05-12 17:15:00,
2013-05-12 13:16:00,46.8,27.1,29.86,WNW,291,6.0,-999.0,46,0.00,,,0.02,Wunderground v.1.15,2013-05-12 17:16:00,
2013-05-12 13:18:00,46.5,26.3,29.86,NW,306,3.0,-999.0,45,0.00,,,0.02,Wunderground v.1.15,2013-05-12 17:18:00,
2013-05-12 13:19:00,46.5,26.3,29.86,SW,230,3.0,-999.0,45,0.00,,,0.02,Wunderground v.1.15,2013-05-12 17:19:00,
2013-05-12 13:21:00,46.5,26.3,29.86,WSW,253,1.0,-999.0,45,0.00,,,0.02,Wunderground v.1.15,2013-05-12 17:21:00,
2013-05-12 13:23:00,46.7,27.0,29.86,SW,227,2.0,-999.0,46,0.00,,,0.02,Wunderground v.1.15,2013-05-12 17:23:00,
2013-05-12 13:24:00,46.5,26.3,29.86,WNW,292,1.0,-999.0,45,0.00,,,0.02,Wunderground v.1.15,2013-05-12 17:24:00,
2013-05-12 13:26:00,46.5,26.8,29.86,NW,326,3.0,-999.0,46,0.00,,,0.02,Wunderground v.1.15,2013-05-12 17:26:00,
2013-05-12 13:27:00,46.5,26.8,29.86,WNW,296,1.0,-999.0,46,0.00,,,0.02,Wunderground v.1.15,2013-05-12 17:27:00,
2013-05-12 13:28:00,46.4,26.7,29.86,NW,308,5.0,-999.0,46,0.00,,,0.02,Wunderground v.1.15,2013-05-12 17:28:00,
2013-05-12 13:29:00,46.4,26.7,29.86,WNW,298,6.0,-999.0,46,0.00,,,0.02,Wunderground v.1.15,2013-05-12 17:29:00,
2013-05-12 13:30:00,46.4,27.2,29.87,NW,323,7.0,-999.0,47,0.00,,,0.02,Wunderground v.1.15,2013-05-12 17:30:00,
2013-05-12 13:31:00,46.4,26.7,29.87,NW,305,6.0,-999.0,46,0.00,,,0.02,Wunderground v.1.15,2013-05-12 17:31:00,
2013-05-12 13:32:00,46.5,26.8,29.87,NW,305,7.0,-999.0,46,0.00,,,0.02,Wunderground v.1.15,2013-05-12 17:32:00,
2013-05-12 13:34:00,46.5,26.8,29.87,West,261,1.0,-999.0,46,0.00,,,0.02,Wunderground v.1.15,2013-05-12 17:34:00,
2013-05-12 13:35:00,46.8,29.1,29.87,SW,215,6.0,-999.0,50,0.00,,,0.02,Wunderground v.1.15,2013-05-12 17:35:00,
2013-05-12 13:36:00,47.0,29.3,29.87,NW,312,6.0,-999.0,50,0.00,,,0.02,Wunderground v.1.15,2013-05-12 17:36:00,
2013-05-12 13:39:00,47.1,29.4,29.87,WSW,246,2.0,-999.0,50,0.00,,,0.02,Wunderground v.1.15,2013-05-12 17:39:00,
2013-05-12 13:40:00,47.1,29.4,29.87,NW,311,10.0,-999.0,50,0.00,,,0.02,Wunderground v.1.15,2013-05-12 17:40:00,
2013-05-12 13:43:00,46.8,29.1,29.87,West,278,3.0,-999.0,50,0.00,,,0.02,Wunderground v.1.15,2013-05-12 17:43:00,
2013-05-12 13:44:00,46.8,29.1,29.87,WNW,284,7.0,-999.0,50,0.00,,,0.02,Wunderground v.1.15,2013-05-12 17:44:00,
2013-05-12 13:45:00,46.8,29.1,29.87,WNW,289,1.0,-999.0,50,0.00,,,0.02,Wunderground v.1.15,2013-05-12 17:45:00,
2013-05-12 13:46:00,46.8,29.1,29.87,WSW,258,7.0,-999.0,50,0.00,,,0.02,Wunderground v.1.15,2013-05-12 17:46:00,
2013-05-12 13:48:00,47.3,29.6,29.87,West,271,3.0,-999.0,50,0.00,,,0.02,Wunderground v.1.15,2013-05-12 17:48:00,
2013-05-12 13:50:00,47.6,29.9,29.87,NW,304,7.0,-999.0,50,0.00,,,0.02,Wunderground v.1.15,2013-05-12 17:50:00,
2013-05-12 13:51:00,47.7,26.8,29.87,NW,311,6.0,-999.0,44,0.00,,,0.02,Wunderground v.1.15,2013-05-12 17:51:00,
2013-05-12 13:54:00,48.2,27.8,29.87,SSW,202,1.0,-999.0,45,0.00,,,0.02,Wunderground v.1.15,2013-05-12 17:54:00,
2013-05-12 13:55:00,48.2,27.8,29.87,NW,311,3.0,-999.0,45,0.00,,,0.02,Wunderground v.1.15,2013-05-12 17:55:00,
2013-05-12 13:56:00,48.2,27.8,29.87,WNW,288,1.0,-999.0,45,0.00,,,0.02,Wunderground v.1.15,2013-05-12 17:56:00,
2013-05-12 13:57:00,48.0,26.0,29.87,WNW,292,3.0,-999.0,42,0.00,,,0.02,Wunderground v.1.15,2013-05-12 17:57:00,
2013-05-12 13:59:00,47.7,25.7,29.87,West,275,6.0,-999.0,42,0.00,,,0.02,Wunderground v.1.15,2013-05-12 17:59:00,
2013-05-12 14:00:00,47.7,26.3,29.87,NW,315,0.0,-999.0,43,0.00,,,0.02,Wunderground v.1.15,2013-05-12 18:00:00,
2013-05-12 14:01:00,47.4,26.0,29.87,NW,305,6.0,-999.0,43,0.00,,,0.02,Wunderground v.1.15,2013-05-12 18:01:00,
2013-05-12 14:02:00,47.4,26.0,29.87,NW,308,3.0,-999.0,43,0.00,,,0.02,Wunderground v.1.15,2013-05-12 18:02:00,
2013-05-12 14:04:00,47.0,26.7,29.87,West,265,2.0,-999.0,45,0.00,,,0.02,Wunderground v.1.15,2013-05-12 18:04:00,
2013-05-12 14:06:00,47.0,26.7,29.87,WNW,301,5.0,-999.0,45,0.00,,,0.02,Wunderground v.1.15,2013-05-12 18:06:00,
2013-05-12 14:08:00,47.0,26.7,29.87,NNW,344,3.0,-999.0,45,0.00,,,0.02,Wunderground v.1.15,2013-05-12 18:08:00,
2013-05-12 14:09:00,47.3,28.6,29.87,NW,315,1.0,-999.0,48,0.00,,,0.02,Wunderground v.1.15,2013-05-12 18:09:00,
2013-05-12 14:11:00,47.4,28.7,29.87,WNW,296,2.0,-999.0,48,0.00,,,0.02,Wunderground v.1.15,2013-05-12 18:11:00,
2013-05-12 14:12:00,47.4,28.7,29.87,NNW,335,4.0,-999.0,48,0.00,,,0.02,Wunderground v.1.15,2013-05-12 18:12:00,
2013-05-12 14:13:00,47.6,27.8,29.87,WNW,292,3.0,-999.0,46,0.00,,,0.02,Wunderground v.1.15,2013-05-12 18:13:00,
2013-05-12 14:15:00,47.4,27.6,29.87,NW,318,6.0,-999.0,46,0.00,,,0.02,Wunderground v.1.15,2013-05-12 18:15:00,
2013-05-12 14:17:00,47.3,25.9,29.87,West,270,7.0,-999.0,43,0.00,,,0.02,Wunderground v.1.15,2013-05-12 18:17:00,
2013-05-12 14:18:00,47.1,26.3,29.87,WNW,292,11.0,-999.0,44,0.00,,,0.02,Wunderground v.1.15,2013-05-12 18:18:00,
2013-05-12 14:19:00,47.1,26.3,29.87,WNW,282,4.0,-999.0,44,0.00,,,0.02,Wunderground v.1.15,2013-05-12 18:19:00,
2013-05-12 14:20:00,47.0,26.2,29.87,NW,313,6.0,-999.0,44,0.00,,,0.02,Wunderground v.1.15,2013-05-12 18:20:00,
2013-05-12 14:22:00,46.8,27.1,29.87,West,280,2.0,-999.0,46,0.00,,,0.02,Wunderground v.1.15,2013-05-12 18:22:00,
2013-05-12 14:23:00,46.8,27.1,29.87,West,277,1.0,-999.0,46,0.00,,,0.02,Wunderground v.1.15,2013-05-12 18:23:00,
2013-05-12 14:24:00,46.8,27.1,29.87,West,275,0.0,-999.0,46,0.00,,,0.02,Wunderground v.1.15,2013-05-12 18:24:00,
2013-05-12 14:25:00,46.7,28.0,29.87,NW,312,7.0,-999.0,48,0.00,,,0.02,Wunderground v.1.15,2013-05-12 18:25:00,
2013-05-12 14:27:00,46.7,28.0,29.87,WNW,296,2.0,-999.0,48,0.00,,,0.02,Wunderground v.1.15,2013-05-12 18:27:00,
2013-05-12 14:29:00,46.7,28.0,29.87,NW,308,7.0,-999.0,48,0.00,,,0.02,Wunderground v.1.15,2013-05-12 18:29:00,
2013-05-12 14:30:00,46.7,28.0,29.87,NW,308,7.0,-999.0,48,0.00,,,0.02,Wunderground v.1.15,2013-05-12 18:30:00,
2013-05-12 14:32:00,47.3,27.5,29.87,WNW,285,0.0,-999.0,46,0.00,,,0.02,Wunderground v.1.15,2013-05-12 18:32:00,
2013-05-12 14:33:00,47.3,27.5,29.87,WNW,301,3.0,-999.0,46,0.00,,,0.02,Wunderground v.1.15,2013-05-12 18:33:00,
2013-05-12 14:35:00,47.4,27.6,29.87,SW,223,2.0,-999.0,46,0.00,,,0.02,Wunderground v.1.15,2013-05-12 18:35:00,
2013-05-12 14:37:00,47.6,27.8,29.87,NW,305,7.0,-999.0,46,0.00,,,0.02,Wunderground v.1.15,2013-05-12 18:37:00,
2013-05-12 14:38:00,47.6,27.8,29.87,NW,311,10.0,-999.0,46,0.00,,,0.02,Wunderground v.1.15,2013-05-12 18:38:00,
2013-05-12 14:40:00,47.3,27.5,29.87,WNW,285,5.0,-999.0,46,0.00,,,0.02,Wunderground v.1.15,2013-05-12 18:40:00,
2013-05-12 14:41:00,47.1,27.4,29.87,SW,223,3.0,-999.0,46,0.00,,,0.02,Wunderground v.1.15,2013-05-12 18:41:00,
2013-05-12 14:43:00,47.0,27.3,29.87,West,264,4.0,-999.0,46,0.00,,,0.02,Wunderground v.1.15,2013-05-12 18:43:00,
2013-05-12 14:46:00,46.7,27.5,29.88,West,260,0.0,-999.0,47,0.00,,,0.02,Wunderground v.1.15,2013-05-12 18:46:00,
2013-05-12 14:48:00,46.2,27.1,29.88,NW,308,3.0,-999.0,47,0.00,,,0.02,Wunderground v.1.15,2013-05-12 18:48:00,
2013-05-12 14:49:00,46.1,27.0,29.88,NW,308,7.0,-999.0,47,0.00,,,0.02,Wunderground v.1.15,2013-05-12 18:49:00,
2013-05-12 14:51:00,46.0,28.9,29.88,NW,311,7.0,-999.0,51,0.00,,,0.02,Wunderground v.1.15,2013-05-12 18:51:00,
2013-05-12 14:52:00,46.0,28.9,29.88,NNW,329,2.0,-999.0,51,0.00,,,0.02,Wunderground v.1.15,2013-05-12 18:52:00,
2013-05-12 14:54:00,46.0,28.9,29.88,South,185,5.0,-999.0,51,0.00,,,0.02,Wunderground v.1.15,2013-05-12 18:54:00,
2013-05-12 14:55:00,46.0,28.9,29.88,WSW,241,6.0,-999.0,51,0.00,,,0.02,Wunderground v.1.15,2013-05-12 18:55:00,
2013-05-12 14:57:00,46.0,29.3,29.88,SSW,196,3.0,-999.0,52,0.00,,,0.02,Wunderground v.1.15,2013-05-12 18:57:00,
2013-05-12 14:58:00,46.0,29.8,29.88,NW,313,2.0,-999.0,53,0.00,,,0.02,Wunderground v.1.15,2013-05-12 18:58:00,
2013-05-12 14:59:00,46.0,29.8,29.88,WNW,282,0.0,-999.0,53,0.00,,,0.02,Wunderground v.1.15,2013-05-12 18:59:00,
2013-05-12 15:00:00,46.1,29.4,29.88,NW,304,2.0,-999.0,52,0.00,,,0.02,Wunderground v.1.15,2013-05-12 19:00:00,
2013-05-12 15:01:00,46.1,29.4,29.88,WNW,299,6.0,-999.0,52,0.00,,,0.02,Wunderground v.1.15,2013-05-12 19:01:00,
2013-05-12 15:03:00,46.0,27.9,29.88,WNW,302,5.0,-999.0,49,0.00,,,0.02,Wunderground v.1.15,2013-05-12 19:03:00,
2013-05-12 15:04:00,46.0,27.9,29.88,NNW,339,6.0,-999.0,49,0.00,,,0.02,Wunderground v.1.15,2013-05-12 19:04:00,
2013-05-12 15:06:00,46.0,28.4,29.88,NW,309,0.0,-999.0,50,0.00,,,0.02,Wunderground v.1.15,2013-05-12 19:06:00,
2013-05-12 15:07:00,46.0,28.4,29.88,NW,312,0.0,-999.0,50,0.00,,,0.02,Wunderground v.1.15,2013-05-12 19:07:00,
2013-05-12 15:08:00,46.0,28.4,29.88,WNW,294,4.0,-999.0,50,0.00,,,0.02,Wunderground v.1.15,2013-05-12 19:08:00,
2013-05-12 15:09:00,46.0,28.4,29.88,NW,306,7.0,-999.0,50,0.00,,,0.02,Wunderground v.1.15,2013-05-12 19:09:00,
2013-05-12 15:11:00,46.0,28.4,29.88,WNW,302,2.0,-999.0,50,0.00,,,0.02,Wunderground v.1.15,2013-05-12 19:11:00,
2013-05-12 15:12:00,46.0,28.4,29.88,NW,306,4.0,-999.0,50,0.00,,,0.02,Wunderground v.1.15,2013-05-12 19:12:00,
2013-05-12 15:14:00,46.0,28.4,29.88,WNW,301,1.0,-999.0,50,0.00,,,0.02,Wunderground v.1.15,2013-05-12 19:14:00,
2013-05-12 15:15:00,46.0,28.4,29.88,WSW,248,3.0,-999.0,50,0.00,,,0.02,Wunderground v.1.15,2013-05-12 19:15:00,
2013-05-12 15:17:00,46.0,28.4,29.88,NNW,329,5.0,-999.0,50,0.00,,,0.02,Wunderground v.1.15,2013-05-12 19:17:00,
2013-05-12 15:18:00,46.0,28.4,29.88,NNW,336,3.0,-999.0,50,0.00,,,0.02,Wunderground v.1.15,2013-05-12 19:18:00,
2013-05-12 15:19:00,46.1,28.5,29.88,West,267,0.0,-999.0,50,0.00,,,0.02,Wunderground v.1.15,2013-05-12 19:19:00,
2013-05-12 15:20:00,46.1,28.5,29.88,NW,322,3.0,-999.0,50,0.00,,,0.02,Wunderground v.1.15,2013-05-12 19:20:00,
2013-05-12 15:21:00,46.1,28.5,29.88,WNW,289,3.0,-999.0,50,0.00,,,0.02,Wunderground v.1.15,2013-05-12 19:21:00,
2013-05-12 15:22:00,46.1,28.5,29.88,West,280,7.0,-999.0,50,0.00,,,0.02,Wunderground v.1.15,2013-05-12 19:22:00,
2013-05-12 15:23:00,46.1,28.5,29.88,WNW,292,7.0,-999.0,50,0.00,,,0.02,Wunderground v.1.15,2013-05-12 19:23:00,
2013-05-12 15:25:00,46.1,28.5,29.88,NW,304,5.0,-999.0,50,0.00,,,0.02,Wunderground v.1.15,2013-05-12 19:25:00,
2013-05-12 15:26:00,46.1,28.5,29.88,NW,309,14.0,-999.0,50,0.00,,,0.02,Wunderground v.1.15,2013-05-12 19:26:00,
2013-05-12 15:28:00,45.4,27.8,29.88,WNW,284,6.0,-999.0,50,0.00,,,0.02,Wunderground v.1.15,2013-05-12 19:28:00,
2013-05-12 15:30:00,45.2,30.4,29.89,NW,311,2.0,-999.0,56,0.00,,,0.02,Wunderground v.1.15,2013-05-12 19:30:00,
2013-05-12 15:31:00,45.2,30.4,29.89,NW,315,5.0,-999.0,56,0.00,,,0.02,Wunderground v.1.15,2013-05-12 19:31:00,
2013-05-12 15:32:00,45.2,30.4,29.89,WNW,299,1.0,-999.0,56,0.00,,,0.02,Wunderground v.1.15,2013-05-12 19:32:00,
2013-05-12 15:34:00,45.4,30.6,29.89,SSW,199,5.0,-999.0,56,0.00,,,0.02,Wunderground v.1.15,2013-05-12 19:34:00,
2013-05-12 15:35:00,45.5,30.7,29.89,NW,316,3.0,-999.0,56,0.00,,,0.02,Wunderground v.1.15,2013-05-12 19:35:00,
2013-05-12 15:37:00,45.7,30.4,29.89,NW,312,3.0,-999.0,55,0.00,,,0.02,Wunderground v.1.15,2013-05-12 19:37:00,
2013-05-12 15:39:00,45.8,30.5,29.89,NW,319,2.0,-999.0,55,0.00,,,0.02,Wunderground v.1.15,2013-05-12 19:39:00,
2013-05-12 15:40:00,46.0,30.7,29.89,West,261,7.0,-999.0,55,0.00,,,0.02,Wunderground v.1.15,2013-05-12 19:40:00,
2013-05-12 15:41:00,46.0,30.3,29.89,WNW,295,6.0,-999.0,54,0.00,,,0.02,Wunderground v.1.15,2013-05-12 19:41:00,
2013-05-12 15:42:00,46.1,30.4,29.89,SW,222,3.0,-999.0,54,0.00,,,0.02,Wunderground v.1.15,2013-05-12 19:42:00,
2013-05-12 15:44:00,46.1,30.4,29.89,WNW,288,7.0,-999.0,54,0.00,,,0.02,Wunderground v.1.15,2013-05-12 19:44:00,
2013-05-12 15:45:00,46.1,29.0,29.89,SSW,193,4.0,-999.0,51,0.00,,,0.02,Wunderground v.1.15,2013-05-12 19:45:00,
2013-05-12 15:46:00,46.1,29.0,29.89,SW,222,2.0,-999.0,51,0.00,,,0.02,Wunderground v.1.15,2013-05-12 19:46:00,
2013-05-12 15:48:00,46.1,29.0,29.89,WNW,291,5.0,-999.0,51,0.00,,,0.02,Wunderground v.1.15,2013-05-12 19:48:00,
2013-05-12 15:50:00,46.1,29.0,29.89,WSW,253,6.0,-999.0,51,0.00,,,0.02,Wunderground v.1.15,2013-05-12 19:50:00,
2013-05-12 15:51:00,46.2,30.5,29.89,NW,315,3.0,-999.0,54,0.00,,,0.02,Wunderground v.1.15,2013-05-12 19:51:00,
2013-05-12 15:53:00,46.2,30.5,29.89,WSW,240,3.0,-999.0,54,0.00,,,0.02,Wunderground v.1.15,2013-05-12 19:53:00,
2013-05-12 15:55:00,46.4,30.6,29.89,WSW,258,0.0,-999.0,54,0.00,,,0.02,Wunderground v.1.15,2013-05-12 19:55:00,
2013-05-12 15:56:00,46.5,30.7,29.89,NW,305,2.0,-999.0,54,0.00,,,0.02,Wunderground v.1.15,2013-05-12 19:56:00,
2013-05-12 15:58:00,46.5,30.7,29.89,West,263,3.0,-999.0,54,0.00,,,0.02,Wunderground v.1.15,2013-05-12 19:58:00,
2013-05-12 16:00:00,46.4,30.6,29.89,West,272,3.0,-999.0,54,0.00,,,0.02,Wunderground v.1.15,2013-05-12 20:00:00,
2013-05-12 16:01:00,46.4,30.6,29.89,West,272,3.0,-999.0,54,0.00,,,0.02,Wunderground v.1.15,2013-05-12 20:01:00,
2013-05-12 16:02:00,46.2,29.1,29.89,NW,312,7.0,-999.0,51,0.00,,,0.02,Wunderground v.1.15,2013-05-12 20:02:00,
2013-05-12 16:04:00,46.0,28.9,29.89,West,275,3.0,-999.0,51,0.00,,,0.02,Wunderground v.1.15,2013-05-12 20:04:00,
2013-05-12 16:06:00,45.7,28.6,29.89,West,267,6.0,-999.0,51,0.00,,,0.02,Wunderground v.1.15,2013-05-12 20:06:00,
2013-05-12 16:07:00,45.7,29.5,29.89,WNW,302,1.0,-999.0,53,0.00,,,0.02,Wunderground v.1.15,2013-05-12 20:07:00,
2013-05-12 16:08:00,45.7,30.0,29.89,NNW,332,6.0,-999.0,54,0.00,,,0.02,Wunderground v.1.15,2013-05-12 20:08:00,
2013-05-12 16:09:00,45.7,29.5,29.89,NW,325,6.0,-999.0,53,0.00,,,0.02,Wunderground v.1.15,2013-05-12 20:09:00,
2013-05-12 16:12:00,45.7,29.1,29.89,NW,311,5.0,-999.0,52,0.00,,,0.02,Wunderground v.1.15,2013-05-12 20:12:00,
2013-05-12 16:13:00,45.7,29.1,29.89,WNW,302,4.0,-999.0,52,0.00,,,0.02,Wunderground v.1.15,2013-05-12 20:13:00,
2013-05-12 16:14:00,45.8,29.6,29.89,WNW,289,1.0,-999.0,53,0.00,,,0.02,Wunderground v.1.15,2013-05-12 20:14:00,
2013-05-12 16:15:00,45.8,29.2,29.90,NW,315,5.0,-999.0,52,0.00,,,0.02,Wunderground v.1.15,2013-05-12 20:15:00,
2013-05-12 16:17:00,45.8,28.7,29.90,WNW,299,7.0,-999.0,51,0.00,,,0.02,Wunderground v.1.15,2013-05-12 20:17:00,
2013-05-12 16:18:00,45.8,28.7,29.90,WNW,298,6.0,-999.0,51,0.00,,,0.02,Wunderground v.1.15,2013-05-12 20:18:00,
2013-05-12 16:19:00,45.8,28.7,29.90,NNW,333,5.0,-999.0,51,0.00,,,0.02,Wunderground v.1.15,2013-05-12 20:19:00,
2013-05-12 16:20:00,45.7,28.6,29.90,NNW,330,1.0,-999.0,51,0.00,,,0.02,Wunderground v.1.15,2013-05-12 20:20:00,
2013-05-12 16:23:00,45.7,28.6,29.90,NNW,335,4.0,-999.0,51,0.00,,,0.02,Wunderground v.1.15,2013-05-12 20:23:00,
2013-05-12 16:24:00,45.7,28.6,29.90,WNW,288,7.0,-999.0,51,0.00,,,0.02,Wunderground v.1.15,2013-05-12 20:24:00,
2013-05-12 16:25:00,45.5,28.9,29.90,NW,306,6.0,-999.0,52,0.00,,,0.02,Wunderground v.1.15,2013-05-12 20:25:00,
2013-05-12 16:28:00,45.5,29.3,29.90,WNW,301,6.0,-999.0,53,0.00,,,0.02,Wunderground v.1.15,2013-05-12 20:28:00,
2013-05-12 16:30:00,45.5,28.9,29.90,NNW,335,2.0,-999.0,52,0.00,,,0.02,Wunderground v.1.15,2013-05-12 20:30:00,
2013-05-12 16:31:00,45.5,28.9,29.90,WNW,287,3.0,-999.0,52,0.00,,,0.02,Wunderground v.1.15,2013-05-12 20:31:00,
2013-05-12 16:34:00,45.5,28.9,29.90,NNW,336,7.0,-999.0,52,0.00,,,0.02,Wunderground v.1.15,2013-05-12 20:34:00,
2013-05-12 16:35:00,45.5,28.9,29.90,West,281,2.0,-999.0,52,0.00,,,0.02,Wunderground v.1.15,2013-05-12 20:35:00,
2013-05-12 16:36:00,45.5,28.4,29.90,WNW,298,3.0,-999.0,51,0.00,,,0.02,Wunderground v.1.15,2013-05-12 20:36:00,
2013-05-12 16:39:00,45.7,28.1,29.90,North,354,3.0,-999.0,50,0.00,,,0.02,Wunderground v.1.15,2013-05-12 20:39:00,
2013-05-12 16:40:00,45.7,28.1,29.90,WNW,285,4.0,-999.0,50,0.00,,,0.02,Wunderground v.1.15,2013-05-12 20:40:00,
2013-05-12 16:41:00,45.7,27.6,29.90,West,280,5.0,-999.0,49,0.00,,,0.02,Wunderground v.1.15,2013-05-12 20:41:00,
2013-05-12 16:42:00,45.7,27.6,29.90,West,274,10.0,-999.0,49,0.00,,,0.02,Wunderground v.1.15,2013-05-12 20:42:00,
2013-05-12 16:44:00,45.5,27.4,29.91,WNW,296,6.0,-999.0,49,0.00,,,0.02,Wunderground v.1.15,2013-05-12 20:44:00,
2013-05-12 16:46:00,45.5,27.4,29.91,WNW,294,8.0,-999.0,49,0.00,,,0.02,Wunderground v.1.15,2013-05-12 20:46:00,
2013-05-12 16:47:00,45.4,27.3,29.91,North,353,2.0,-999.0,49,0.00,,,0.02,Wunderground v.1.15,2013-05-12 20:47:00,
2013-05-12 16:48:00,45.4,27.3,29.91,North,349,5.0,-999.0,49,0.00,,,0.02,Wunderground v.1.15,2013-05-12 20:48:00,
2013-05-12 16:51:00,45.4,26.8,29.91,NW,325,3.0,-999.0,48,0.00,,,0.02,Wunderground v.1.15,2013-05-12 20:51:00,
2013-05-12 16:52:00,45.2,26.7,29.91,WNW,295,5.0,-999.0,48,0.00,,,0.02,Wunderground v.1.15,2013-05-12 20:52:00,
2013-05-12 16:53:00,45.2,26.7,29.91,WNW,301,2.0,-999.0,48,0.00,,,0.02,Wunderground v.1.15,2013-05-12 20:53:00,
2013-05-12 16:56:00,45.2,26.7,29.91,West,280,5.0,-999.0,48,0.00,,,0.02,Wunderground v.1.15,2013-05-12 20:56:00,
2013-05-12 16:57:00,45.2,26.7,29.91,West,280,5.0,-999.0,48,0.00,,,0.02,Wunderground v.1.15,2013-05-12 20:57:00,
2013-05-12 16:58:00,45.2,26.7,29.91,NNW,339,2.0,-999.0,48,0.00,,,0.02,Wunderground v.1.15,2013-05-12 20:58:00,
2013-05-12 16:59:00,45.2,26.7,29.91,WNW,301,8.0,-999.0,48,0.00,,,0.02,Wunderground v.1.15,2013-05-12 20:59:00,
2013-05-12 17:02:00,45.4,27.3,29.92,NW,312,1.0,-999.0,49,0.00,,,0.02,Wunderground v.1.15,2013-05-12 21:02:00,
2013-05-12 17:03:00,45.4,27.3,29.92,West,280,8.0,-999.0,49,0.00,,,0.02,Wunderground v.1.15,2013-05-12 21:03:00,
2013-05-12 17:04:00,45.5,27.4,29.92,NW,312,11.0,-999.0,49,0.00,,,0.02,Wunderground v.1.15,2013-05-12 21:04:00,
2013-05-12 17:07:00,45.4,27.3,29.92,NW,304,7.0,-999.0,49,0.00,,,0.02,Wunderground v.1.15,2013-05-12 21:07:00,
2013-05-12 17:08:00,45.4,27.3,29.92,NW,320,7.0,-999.0,49,0.00,,,0.02,Wunderground v.1.15,2013-05-12 21:08:00,
2013-05-12 17:09:00,45.2,26.1,29.92,NNW,329,7.0,-999.0,47,0.00,,,0.02,Wunderground v.1.15,2013-05-12 21:09:00,
2013-05-12 17:10:00,45.2,26.1,29.92,NW,323,6.0,-999.0,47,0.00,,,0.02,Wunderground v.1.15,2013-05-12 21:10:00,
2013-05-12 17:12:00,45.1,26.1,29.92,NW,305,3.0,-999.0,47,0.00,,,0.02,Wunderground v.1.15,2013-05-12 21:12:00,
2013-05-12 17:13:00,45.1,26.1,29.92,WNW,301,10.0,-999.0,47,0.00,,,0.02,Wunderground v.1.15,2013-05-12 21:13:00,
2013-05-12 17:14:00,45.1,26.1,29.92,North,357,4.0,-999.0,47,0.00,,,0.02,Wunderground v.1.15,2013-05-12 21:14:00,
2013-05-12 17:15:00,44.8,26.8,29.92,NW,315,4.0,-999.0,49,0.00,,,0.02,Wunderground v.1.15,2013-05-12 21:15:00,
2013-05-12 17:17:00,44.8,27.3,29.92,NW,323,1.0,-999.0,50,0.00,,,0.02,Wunderground v.1.15,2013-05-12 21:17:00,
2013-05-12 17:19:00,44.6,27.6,29.92,NW,309,0.0,-999.0,51,0.00,,,0.02,Wunderground v.1.15,2013-05-12 21:19:00,
2013-05-12 17:20:00,44.6,27.6,29.92,North,353,3.0,-999.0,51,0.00,,,0.02,Wunderground v.1.15,2013-05-12 21:20:00,
2013-05-12 17:23:00,44.5,27.5,29.92,WNW,285,2.0,-999.0,51,0.00,,,0.02,Wunderground v.1.15,2013-05-12 21:23:00,
2013-05-12 17:24:00,44.5,27.5,29.92,West,272,6.0,-999.0,51,0.00,,,0.02,Wunderground v.1.15,2013-05-12 21:24:00,
2013-05-12 17:25:00,44.3,27.3,29.92,NW,306,6.0,-999.0,51,0.00,,,0.02,Wunderground v.1.15,2013-05-12 21:25:00,
2013-05-12 17:26:00,44.3,27.3,29.92,NW,313,6.0,-999.0,51,0.00,,,0.02,Wunderground v.1.15,2013-05-12 21:26:00,
2013-05-12 17:29:00,44.2,27.2,29.92,NNW,335,0.0,-999.0,51,0.00,,,0.02,Wunderground v.1.15,2013-05-12 21:29:00,
2013-05-12 17:30:00,43.9,26.9,29.94,NW,306,5.0,-999.0,51,0.00,,,0.02,Wunderground v.1.15,2013-05-12 21:30:00,
2013-05-12 17:31:00,43.9,26.9,29.94,NW,318,6.0,-999.0,51,0.00,,,0.02,Wunderground v.1.15,2013-05-12 21:31:00,
2013-05-12 17:32:00,43.9,26.9,29.94,NW,318,6.0,-999.0,51,0.00,,,0.02,Wunderground v.1.15,2013-05-12 21:32:00,
2013-05-12 17:34:00,43.8,26.8,29.94,WNW,302,6.0,-999.0,51,0.00,,,0.02,Wunderground v.1.15,2013-05-12 21:34:00,
2013-05-12 17:35:00,43.8,26.8,29.94,NNW,333,2.0,-999.0,51,0.00,,,0.02,Wunderground v.1.15,2013-05-12 21:35:00,
2013-05-12 17:36:00,43.8,26.8,29.94,NW,304,2.0,-999.0,51,0.00,,,0.02,Wunderground v.1.15,2013-05-12 21:36:00,
2013-05-12 17:38:00,43.8,25.9,29.94,North,349,8.0,-999.0,49,0.00,,,0.02,Wunderground v.1.15,2013-05-12 21:38:00,
2013-05-12 17:39:00,43.6,25.7,29.94,NW,313,6.0,-999.0,49,0.00,,,0.02,Wunderground v.1.15,2013-05-12 21:39:00,
2013-05-12 17:41:00,43.6,25.7,29.94,NW,305,6.0,-999.0,49,0.00,,,0.02,Wunderground v.1.15,2013-05-12 21:41:00,
2013-05-12 17:42:00,43.6,25.7,29.94,WNW,298,7.0,-999.0,49,0.00,,,0.02,Wunderground v.1.15,2013-05-12 21:42:00,
2013-05-12 17:44:00,43.6,25.7,29.94,WSW,253,5.0,-999.0,49,0.00,,,0.02,Wunderground v.1.15,2013-05-12 21:44:00,
2013-05-12 17:45:00,43.6,25.7,29.94,NNW,330,3.0,-999.0,49,0.00,,,0.02,Wunderground v.1.15,2013-05-12 21:45:00,
2013-05-12 17:46:00,43.6,25.7,29.94,NNW,336,7.0,-999.0,49,0.00,,,0.02,Wunderground v.1.15,2013-05-12 21:46:00,
2013-05-12 17:47:00,43.6,25.7,29.94,NW,309,3.0,-999.0,49,0.00,,,0.02,Wunderground v.1.15,2013-05-12 21:47:00,
2013-05-12 17:51:00,43.5,26.1,29.94,NW,316,2.0,-999.0,50,0.00,,,0.02,Wunderground v.1.15,2013-05-12 21:51:00,
2013-05-12 17:52:00,43.5,26.1,29.94,North,353,3.0,-999.0,50,0.00,,,0.02,Wunderground v.1.15,2013-05-12 21:52:00,
2013-05-12 17:56:00,43.5,27.0,29.94,WNW,289,3.0,-999.0,52,0.00,,,0.02,Wunderground v.1.15,2013-05-12 21:56:00,
2013-05-12 17:57:00,43.5,27.0,29.94,WNW,296,2.0,-999.0,52,0.00,,,0.02,Wunderground v.1.15,2013-05-12 21:57:00,
2013-05-12 17:58:00,43.5,26.1,29.94,SSW,205,7.0,-999.0,50,0.00,,,0.02,Wunderground v.1.15,2013-05-12 21:58:00,
2013-05-12 18:01:00,43.3,25.4,29.95,West,274,2.0,-999.0,49,0.00,,,0.02,Wunderground v.1.15,2013-05-12 22:01:00,
2013-05-12 18:02:00,43.3,25.4,29.95,NNW,330,5.0,-999.0,49,0.00,,,0.02,Wunderground v.1.15,2013-05-12 22:02:00,
2013-05-12 18:03:00,43.3,24.9,29.95,NW,319,8.0,-999.0,48,0.00,,,0.02,Wunderground v.1.15,2013-05-12 22:03:00,
2013-05-12 18:06:00,43.1,24.7,29.95,NW,304,8.0,-999.0,48,0.00,,,0.02,Wunderground v.1.15,2013-05-12 22:06:00,
2013-05-12 18:07:00,43.1,24.7,29.95,NW,304,8.0,-999.0,48,0.00,,,0.02,Wunderground v.1.15,2013-05-12 22:07:00,
2013-05-12 18:08:00,43.1,24.7,29.95,NW,316,7.0,-999.0,48,0.00,,,0.02,Wunderground v.1.15,2013-05-12 22:08:00,
2013-05-12 18:09:00,42.9,24.5,29.95,WNW,289,7.0,-999.0,48,0.00,,,0.02,Wunderground v.1.15,2013-05-12 22:09:00,
2013-05-12 18:12:00,42.9,25.0,29.95,NNW,332,4.0,-999.0,49,0.00,,,0.02,Wunderground v.1.15,2013-05-12 22:12:00,
2013-05-12 18:13:00,42.9,25.0,29.95,WNW,284,4.0,-999.0,49,0.00,,,0.02,Wunderground v.1.15,2013-05-12 22:13:00,
2013-05-12 18:14:00,42.9,25.0,29.95,NW,305,2.0,-999.0,49,0.00,,,0.02,Wunderground v.1.15,2013-05-12 22:14:00,
2013-05-12 18:17:00,42.9,25.0,29.95,WNW,289,2.0,-999.0,49,0.00,,,0.02,Wunderground v.1.15,2013-05-12 22:17:00,
2013-05-12 18:18:00,42.9,25.0,29.95,West,271,2.0,-999.0,49,0.00,,,0.02,Wunderground v.1.15,2013-05-12 22:18:00,
2013-05-12 18:19:00,42.9,25.0,29.95,WNW,301,5.0,-999.0,49,0.00,,,0.02,Wunderground v.1.15,2013-05-12 22:19:00,
2013-05-12 18:20:00,42.8,24.9,29.95,West,277,3.0,-999.0,49,0.00,,,0.02,Wunderground v.1.15,2013-05-12 22:20:00,
2013-05-12 18:22:00,42.8,24.9,29.95,WNW,287,8.0,-999.0,49,0.00,,,0.02,Wunderground v.1.15,2013-05-12 22:22:00,
2013-05-12 18:23:00,42.6,24.8,29.95,WNW,301,7.0,-999.0,49,0.00,,,0.02,Wunderground v.1.15,2013-05-12 22:23:00,
2013-05-12 18:24:00,42.6,24.8,29.95,NW,316,7.0,-999.0,49,0.00,,,0.02,Wunderground v.1.15,2013-05-12 22:24:00,
2013-05-12 18:25:00,42.6,24.8,29.95,NW,325,5.0,-999.0,49,0.00,,,0.02,Wunderground v.1.15,2013-05-12 22:25:00,
2013-05-12 18:26:00,42.6,25.2,29.95,NW,305,3.0,-999.0,50,0.00,,,0.02,Wunderground v.1.15,2013-05-12 22:26:00,
2013-05-12 18:28:00,42.5,25.1,29.95,WNW,289,7.0,-999.0,50,0.00,,,0.02,Wunderground v.1.15,2013-05-12 22:28:00,
2013-05-12 18:29:00,42.5,25.1,29.95,NW,309,0.0,-999.0,50,0.00,,,0.02,Wunderground v.1.15,2013-05-12 22:29:00,
2013-05-12 18:30:00,42.5,25.1,29.95,West,271,3.0,-999.0,50,0.00,,,0.02,Wunderground v.1.15,2013-05-12 22:30:00,
2013-05-12 18:31:00,42.5,25.1,29.95,NNW,344,2.0,-999.0,50,0.00,,,0.02,Wunderground v.1.15,2013-05-12 22:31:00,
2013-05-12 18:33:00,42.5,25.1,29.95,WNW,298,0.0,-999.0,50,0.00,,,0.02,Wunderground v.1.15,2013-05-12 22:33:00,
2013-05-12 18:34:00,42.5,25.1,29.95,North,0,9.0,-999.0,50,0.00,,,0.02,Wunderground v.1.15,2013-05-12 22:34:00,
2013-05-12 18:36:00,42.5,25.1,29.95,NW,309,0.0,-999.0,50,0.00,,,0.02,Wunderground v.1.15,2013-05-12 22:36:00,
2013-05-12 18:37:00,42.5,25.1,29.95,NW,315,9.0,-999.0,50,0.00,,,0.02,Wunderground v.1.15,2013-05-12 22:37:00,
2013-05-12 18:39:00,42.3,24.5,29.95,North,353,2.0,-999.0,49,0.00,,,0.02,Wunderground v.1.15,2013-05-12 22:39:00,
2013-05-12 18:41:00,42.3,25.0,29.95,NW,312,2.0,-999.0,50,0.00,,,0.02,Wunderground v.1.15,2013-05-12 22:41:00,
2013-05-12 18:42:00,42.3,25.0,29.95,WNW,289,3.0,-999.0,50,0.00,,,0.02,Wunderground v.1.15,2013-05-12 22:42:00,
2013-05-12 18:44:00,42.3,25.0,29.95,SW,233,5.0,-999.0,50,0.00,,,0.02,Wunderground v.1.15,2013-05-12 22:44:00,
2013-05-12 18:46:00,42.2,24.9,29.96,NW,309,2.0,-999.0,50,0.00,,,0.02,Wunderground v.1.15,2013-05-12 22:46:00,
2013-05-12 18:47:00,42.2,24.9,29.96,NW,309,0.0,-999.0,50,0.00,,,0.02,Wunderground v.1.15,2013-05-12 22:47:00,
2013-05-12 18:48:00,42.2,25.8,29.96,WNW,298,3.0,-999.0,52,0.00,,,0.02,Wunderground v.1.15,2013-05-12 22:48:00,
2013-05-12 18:49:00,42.2,25.8,29.96,WNW,296,0.0,-999.0,52,0.00,,,0.02,Wunderground v.1.15,2013-05-12 22:49:00,
2013-05-12 18:51:00,42.2,25.8,29.96,NW,313,4.0,-999.0,52,0.00,,,0.02,Wunderground v.1.15,2013-05-12 22:51:00,
2013-05-12 18:53:00,42.1,25.7,29.96,NNW,333,7.0,-999.0,52,0.00,,,0.02,Wunderground v.1.15,2013-05-12 22:53:00,
2013-05-12 18:54:00,42.1,25.7,29.96,NW,309,8.0,-999.0,52,0.00,,,0.02,Wunderground v.1.15,2013-05-12 22:54:00,
2013-05-12 18:56:00,41.9,25.5,29.96,NW,315,3.0,-999.0,52,0.00,,,0.02,Wunderground v.1.15,2013-05-12 22:56:00,
2013-05-12 18:57:00,41.9,25.5,29.96,NW,325,2.0,-999.0,52,0.00,,,0.02,Wunderground v.1.15,2013-05-12 22:57:00,
2013-05-12 18:58:00,41.9,25.5,29.96,NW,320,5.0,-999.0,52,0.00,,,0.02,Wunderground v.1.15,2013-05-12 22:58:00,
2013-05-12 18:59:00,41.9,25.5,29.96,NW,320,5.0,-999.0,52,0.00,,,0.02,Wunderground v.1.15,2013-05-12 22:59:00,
2013-05-12 19:01:00,41.9,25.5,29.96,NW,326,6.0,-999.0,52,0.00,,,0.02,Wunderground v.1.15,2013-05-12 23:01:00,
2013-05-12 19:02:00,41.8,25.4,29.96,NW,312,0.0,-999.0,52,0.00,,,0.02,Wunderground v.1.15,2013-05-12 23:02:00,
2013-05-12 19:04:00,41.8,25.4,29.96,NNW,329,4.0,-999.0,52,0.00,,,0.02,Wunderground v.1.15,2013-05-12 23:04:00,
2013-05-12 19:05:00,41.8,25.4,29.96,NW,326,3.0,-999.0,52,0.00,,,0.02,Wunderground v.1.15,2013-05-12 23:05:00,
2013-05-12 19:07:00,41.9,25.5,29.96,NW,309,5.0,-999.0,52,0.00,,,0.02,Wunderground v.1.15,2013-05-12 23:07:00,
2013-05-12 19:09:00,41.9,25.1,29.96,NW,315,2.0,-999.0,51,0.00,,,0.02,Wunderground v.1.15,2013-05-12 23:09:00,
2013-05-12 19:10:00,41.9,25.1,29.96,NW,308,4.0,-999.0,51,0.00,,,0.02,Wunderground v.1.15,2013-05-12 23:10:00,
2013-05-12 19:11:00,41.9,25.1,29.96,NNW,337,5.0,-999.0,51,0.00,,,0.02,Wunderground v.1.15,2013-05-12 23:11:00,
2013-05-12 19:12:00,41.9,24.6,29.96,NW,322,6.0,-999.0,50,0.00,,,0.02,Wunderground v.1.15,2013-05-12 23:12:00,
2013-05-12 19:13:00,41.9,24.6,29.96,NW,311,0.0,-999.0,50,0.00,,,0.02,Wunderground v.1.15,2013-05-12 23:13:00,
2013-05-12 19:14:00,41.9,24.6,29.96,NW,316,2.0,-999.0,50,0.00,,,0.02,Wunderground v.1.15,2013-05-12 23:14:00,
2013-05-12 19:15:00,41.9,24.6,29.96,NW,309,3.0,-999.0,50,0.00,,,0.02,Wunderground v.1.15,2013-05-12 23:15:00,
2013-05-12 19:17:00,41.9,24.6,29.96,NW,312,6.0,-999.0,50,0.00,,,0.02,Wunderground v.1.15,2013-05-12 23:17:00,
2013-05-12 19:18:00,41.9,24.6,29.96,NW,312,6.0,-999.0,50,0.00,,,0.02,Wunderground v.1.15,2013-05-12 23:18:00,
2013-05-12 19:19:00,41.9,24.6,29.96,NW,325,3.0,-999.0,50,0.00,,,0.02,Wunderground v.1.15,2013-05-12 23:19:00,
2013-05-12 19:22:00,41.9,24.6,29.96,WNW,298,4.0,-999.0,50,0.00,,,0.02,Wunderground v.1.15,2013-05-12 23:22:00,
2013-05-12 19:23:00,41.9,24.6,29.96,NW,309,3.0,-999.0,50,0.00,,,0.02,Wunderground v.1.15,2013-05-12 23:23:00,
2013-05-12 19:25:00,41.9,24.6,29.96,NW,322,2.0,-999.0,50,0.00,,,0.02,Wunderground v.1.15,2013-05-12 23:25:00,
2013-05-12 19:27:00,41.9,25.1,29.96,WNW,301,5.0,-999.0,51,0.00,,,0.02,Wunderground v.1.15,2013-05-12 23:27:00,
2013-05-12 19:28:00,41.9,24.6,29.96,NW,309,2.0,-999.0,50,0.00,,,0.02,Wunderground v.1.15,2013-05-12 23:28:00,
2013-05-12 19:29:00,41.9,24.6,29.96,NW,304,3.0,-999.0,50,0.00,,,0.02,Wunderground v.1.15,2013-05-12 23:29:00,
2013-05-12 19:30:00,41.9,24.6,29.97,NW,306,2.0,-999.0,50,0.00,,,0.02,Wunderground v.1.15,2013-05-12 23:30:00,
2013-05-12 19:33:00,41.9,25.1,29.97,West,271,0.0,-999.0,51,0.00,,,0.02,Wunderground v.1.15,2013-05-12 23:33:00,
2013-05-12 19:34:00,41.9,25.1,29.97,NW,308,2.0,-999.0,51,0.00,,,0.02,Wunderground v.1.15,2013-05-12 23:34:00,
2013-05-12 19:35:00,41.9,25.1,29.97,WNW,298,5.0,-999.0,51,0.00,,,0.02,Wunderground v.1.15,2013-05-12 23:35:00,
2013-05-12 19:38:00,41.8,25.0,29.97,WNW,294,5.0,-999.0,51,0.00,,,0.02,Wunderground v.1.15,2013-05-12 23:38:00,
2013-05-12 19:39:00,41.8,24.5,29.97,NW,320,3.0,-999.0,50,0.00,,,0.02,Wunderground v.1.15,2013-05-12 23:39:00,
2013-05-12 19:40:00,41.8,24.5,29.97,WNW,301,4.0,-999.0,50,0.00,,,0.02,Wunderground v.1.15,2013-05-12 23:40:00,
2013-05-12 19:41:00,41.8,24.5,29.97,West,277,6.0,-999.0,50,0.00,,,0.02,Wunderground v.1.15,2013-05-12 23:41:00,
2013-05-12 19:43:00,41.6,23.8,29.97,NW,316,5.0,-999.0,49,0.00,,,0.02,Wunderground v.1.15,2013-05-12 23:43:00,
2013-05-12 19:44:00,41.6,23.8,29.97,NNW,333,8.0,-999.0,49,0.00,,,0.02,Wunderground v.1.15,2013-05-12 23:44:00,
2013-05-12 19:45:00,41.6,23.8,29.97,NW,316,6.0,-999.0,49,0.00,,,0.02,Wunderground v.1.15,2013-05-12 23:45:00,
2013-05-12 19:48:00,41.6,23.8,29.97,WNW,291,1.0,-999.0,49,0.00,,,0.02,Wunderground v.1.15,2013-05-12 23:48:00,
2013-05-12 19:49:00,41.6,23.8,29.97,WNW,298,0.0,-999.0,49,0.00,,,0.02,Wunderground v.1.15,2013-05-12 23:49:00,
2013-05-12 19:50:00,41.6,23.8,29.97,North,0,6.0,-999.0,49,0.00,,,0.02,Wunderground v.1.15,2013-05-12 23:50:00,
2013-05-12 19:54:00,41.6,23.8,29.97,NW,305,3.0,-999.0,49,0.00,,,0.02,Wunderground v.1.15,2013-05-12 23:54:00,
2013-05-12 19:55:00,41.6,23.8,29.97,SSW,205,2.0,-999.0,49,0.00,,,0.02,Wunderground v.1.15,2013-05-12 23:55:00,
2013-05-12 19:57:00,41.6,23.8,29.97,NW,325,1.0,-999.0,49,0.00,,,0.02,Wunderground v.1.15,2013-05-12 23:57:00,
2013-05-12 19:59:00,41.6,23.8,29.97,NW,322,0.0,-999.0,49,0.00,,,0.02,Wunderground v.1.15,2013-05-12 23:59:00,
2013-05-12 20:00:00,41.6,23.8,29.98,NW,306,0.0,-999.0,49,0.00,,,0.02,Wunderground v.1.15,2013-05-13 00:00:00,
2013-05-12 20:02:00,41.6,23.8,29.98,NW,311,3.0,-999.0,49,0.00,,,0.02,Wunderground v.1.15,2013-05-13 00:02:00,
2013-05-12 20:04:00,41.6,23.8,29.98,NW,312,0.0,-999.0,49,0.00,,,0.02,Wunderground v.1.15,2013-05-13 00:04:00,
2013-05-12 20:05:00,41.6,24.3,29.98,NNW,347,1.0,-999.0,50,0.00,,,0.02,Wunderground v.1.15,2013-05-13 00:05:00,
2013-05-12 20:07:00,41.6,23.8,29.98,NNW,329,3.0,-999.0,49,0.00,,,0.02,Wunderground v.1.15,2013-05-13 00:07:00,
2013-05-12 20:08:00,41.6,23.8,29.98,WNW,294,2.0,-999.0,49,0.00,,,0.02,Wunderground v.1.15,2013-05-13 00:08:00,
2013-05-12 20:10:00,41.6,23.8,29.98,NW,315,3.0,-999.0,49,0.00,,,0.02,Wunderground v.1.15,2013-05-13 00:10:00,
2013-05-12 20:12:00,41.5,23.7,29.98,North,350,2.0,-999.0,49,0.00,,,0.02,Wunderground v.1.15,2013-05-13 00:12:00,
2013-05-12 20:13:00,41.5,23.2,29.98,NW,312,5.0,-999.0,48,0.00,,,0.02,Wunderground v.1.15,2013-05-13 00:13:00,
2013-05-12 20:15:00,41.5,23.2,29.98,NNW,337,2.0,-999.0,48,0.00,,,0.02,Wunderground v.1.15,2013-05-13 00:15:00,
2013-05-12 20:16:00,41.5,23.2,29.98,NW,326,3.0,-999.0,48,0.00,,,0.02,Wunderground v.1.15,2013-05-13 00:16:00,
2013-05-12 20:17:00,41.5,23.2,29.98,NW,326,0.0,-999.0,48,0.00,,,0.02,Wunderground v.1.15,2013-05-13 00:17:00,
2013-05-12 20:18:00,41.5,23.7,29.98,NW,326,2.0,-999.0,49,0.00,,,0.02,Wunderground v.1.15,2013-05-13 00:18:00,
2013-05-12 20:21:00,41.5,23.7,29.98,NW,322,3.0,-999.0,49,0.00,,,0.02,Wunderground v.1.15,2013-05-13 00:21:00,
2013-05-12 20:22:00,41.3,23.1,29.98,West,274,6.0,-999.0,48,0.00,,,0.02,Wunderground v.1.15,2013-05-13 00:22:00,
2013-05-12 20:23:00,41.3,23.1,29.98,West,271,2.0,-999.0,48,0.00,,,0.02,Wunderground v.1.15,2013-05-13 00:23:00,
2013-05-12 20:24:00,41.3,23.1,29.98,SW,219,1.0,-999.0,48,0.00,,,0.02,Wunderground v.1.15,2013-05-13 00:24:00,
2013-05-12 20:27:00,41.3,23.1,29.98,NW,325,2.0,-999.0,48,0.00,,,0.02,Wunderground v.1.15,2013-05-13 00:27:00,
2013-05-12 20:28:00,41.3,23.6,29.98,NW,306,0.0,-999.0,49,0.00,,,0.02,Wunderground v.1.15,2013-05-13 00:28:00,
2013-05-12 20:29:00,41.3,23.6,29.98,NW,306,0.0,-999.0,49,0.00,,,0.02,Wunderground v.1.15,2013-05-13 00:29:00,
2013-05-12 20:32:00,41.3,23.6,29.99,NW,318,0.0,-999.0,49,0.00,,,0.02,Wunderground v.1.15,2013-05-13 00:32:00,
2013-05-12 20:34:00,41.3,23.6,29.99,WSW,254,1.0,-999.0,49,0.00,,,0.02,Wunderground v.1.15,2013-05-13 00:34:00,
2013-05-12 20:35:00,41.2,23.5,29.99,NW,313,5.0,-999.0,49,0.00,,,0.02,Wunderground v.1.15,2013-05-13 00:35:00,
2013-05-12 20:38:00,41.2,22.5,29.99,NW,308,2.0,-999.0,47,0.00,,,0.02,Wunderground v.1.15,2013-05-13 00:38:00,
2013-05-12 20:39:00,41.2,22.5,29.99,WNW,299,2.0,-999.0,47,0.00,,,0.02,Wunderground v.1.15,2013-05-13 00:39:00,
2013-05-12 20:40:00,41.2,22.5,29.99,West,281,3.0,-999.0,47,0.00,,,0.02,Wunderground v.1.15,2013-05-13 00:40:00,
2013-05-12 20:41:00,41.2,22.5,29.99,NW,322,3.0,-999.0,47,0.00,,,0.02,Wunderground v.1.15,2013-05-13 00:41:00,
2013-05-12 20:43:00,41.1,22.4,29.99,WNW,301,1.0,-999.0,47,0.00,,,0.02,Wunderground v.1.15,2013-05-13 00:43:00,
2013-05-12 20:45:00,41.1,22.9,29.99,WSW,253,0.0,-999.0,48,0.00,,,0.02,Wunderground v.1.15,2013-05-13 00:45:00,
2013-05-12 20:46:00,41.1,22.9,29.99,WSW,257,0.0,-999.0,48,0.00,,,0.02,Wunderground v.1.15,2013-05-13 00:46:00,
2013-05-12 20:47:00,41.1,22.9,29.99,WSW,257,0.0,-999.0,48,0.00,,,0.02,Wunderground v.1.15,2013-05-13 00:47:00,
2013-05-12 20:48:00,40.9,22.7,29.99,WNW,301,1.0,-999.0,48,0.00,,,0.02,Wunderground v.1.15,2013-05-13 00:48:00,
2013-05-12 20:50:00,40.9,22.7,29.99,WNW,301,5.0,-999.0,48,0.00,,,0.02,Wunderground v.1.15,2013-05-13 00:50:00,
2013-05-12 20:51:00,40.9,22.7,29.99,NW,318,1.0,-999.0,48,0.00,,,0.02,Wunderground v.1.15,2013-05-13 00:51:00,
2013-05-12 20:52:00,40.9,22.7,29.99,NW,318,0.0,-999.0,48,0.00,,,0.02,Wunderground v.1.15,2013-05-13 00:52:00,
2013-05-12 20:53:00,40.9,22.7,29.99,NW,318,0.0,-999.0,48,0.00,,,0.02,Wunderground v.1.15,2013-05-13 00:53:00,
2013-05-12 20:57:00,40.8,22.6,29.99,NW,305,5.0,-999.0,48,0.00,,,0.02,Wunderground v.1.15,2013-05-13 00:57:00,
2013-05-12 20:58:00,40.8,22.6,29.99,NW,304,1.0,-999.0,48,0.00,,,0.02,Wunderground v.1.15,2013-05-13 00:58:00,
2013-05-12 21:02:00,40.6,22.4,30.00,NW,315,0.0,-999.0,48,0.00,,,0.02,Wunderground v.1.15,2013-05-13 01:02:00,
2013-05-12 21:03:00,40.6,22.4,30.00,NW,316,1.0,-999.0,48,0.00,,,0.02,Wunderground v.1.15,2013-05-13 01:03:00,
2013-05-12 21:04:00,40.6,22.4,30.00,SW,236,2.0,-999.0,48,0.00,,,0.02,Wunderground v.1.15,2013-05-13 01:04:00,
2013-05-12 21:07:00,40.6,22.4,30.00,NW,318,2.0,-999.0,48,0.00,,,0.02,Wunderground v.1.15,2013-05-13 01:07:00,
2013-05-12 21:08:00,40.6,21.9,30.00,NW,320,6.0,-999.0,47,0.00,,,0.02,Wunderground v.1.15,2013-05-13 01:08:00,
2013-05-12 21:09:00,40.6,21.9,30.00,NNW,332,3.0,-999.0,47,0.00,,,0.02,Wunderground v.1.15,2013-05-13 01:09:00,
2013-05-12 21:10:00,40.6,21.9,30.00,NW,308,0.0,-999.0,47,0.00,,,0.02,Wunderground v.1.15,2013-05-13 01:10:00,
2013-05-12 21:12:00,40.5,21.8,30.00,NW,308,0.0,-999.0,47,0.00,,,0.02,Wunderground v.1.15,2013-05-13 01:12:00,
2013-05-12 21:14:00,40.5,21.8,30.00,WNW,296,2.0,-999.0,47,0.00,,,0.02,Wunderground v.1.15,2013-05-13 01:14:00,
2013-05-12 21:15:00,40.5,21.8,30.00,NW,322,2.0,-999.0,47,0.00,,,0.02,Wunderground v.1.15,2013-05-13 01:15:00,
2013-05-12 21:17:00,40.3,21.6,30.00,West,280,2.0,-999.0,47,0.00,,,0.02,Wunderground v.1.15,2013-05-13 01:17:00,
2013-05-12 21:19:00,40.3,21.6,30.00,NW,305,2.0,-999.0,47,0.00,,,0.02,Wunderground v.1.15,2013-05-13 01:19:00,
2013-05-12 21:20:00,40.3,21.6,30.00,NW,305,2.0,-999.0,47,0.00,,,0.02,Wunderground v.1.15,2013-05-13 01:20:00,
2013-05-12 21:21:00,40.3,21.6,30.00,NW,325,4.0,-999.0,47,0.00,,,0.02,Wunderground v.1.15,2013-05-13 01:21:00,
2013-05-12 21:23:00,40.3,21.6,30.00,NW,308,1.0,-999.0,47,0.00,,,0.02,Wunderground v.1.15,2013-05-13 01:23:00,
2013-05-12 21:25:00,40.2,21.6,30.00,North,0,0.0,-999.0,47,0.00,,,0.02,Wunderground v.1.15,2013-05-13 01:25:00,
2013-05-12 21:26:00,40.2,21.6,30.00,NNW,330,2.0,-999.0,47,0.00,,,0.02,Wunderground v.1.15,2013-05-13 01:26:00,
2013-05-12 21:27:00,40.2,21.6,30.00,NW,304,0.0,-999.0,47,0.00,,,0.02,Wunderground v.1.15,2013-05-13 01:27:00,
2013-05-12 21:28:00,40.2,21.6,30.00,NW,325,0.0,-999.0,47,0.00,,,0.02,Wunderground v.1.15,2013-05-13 01:28:00,
2013-05-12 21:31:00,40.2,22.1,30.01,NW,309,2.0,-999.0,48,0.00,,,0.02,Wunderground v.1.15,2013-05-13 01:31:00,
2013-05-12 21:32:00,40.2,22.1,30.01,NNW,343,3.0,-999.0,48,0.00,,,0.02,Wunderground v.1.15,2013-05-13 01:32:00,
2013-05-12 21:33:00,40.2,22.1,30.01,NW,322,2.0,-999.0,48,0.00,,,0.02,Wunderground v.1.15,2013-05-13 01:33:00,
2013-05-12 21:34:00,40.2,22.1,30.01,NW,315,1.0,-999.0,48,0.00,,,0.02,Wunderground v.1.15,2013-05-13 01:34:00,
2013-05-12 21:37:00,40.2,22.1,30.01,NNW,336,2.0,-999.0,48,0.00,,,0.02,Wunderground v.1.15,2013-05-13 01:37:00,
2013-05-12 21:38:00,40.1,22.0,30.01,WNW,301,3.0,-999.0,48,0.00,,,0.02,Wunderground v.1.15,2013-05-13 01:38:00,
2013-05-12 21:39:00,40.1,22.0,30.01,NW,323,1.0,-999.0,48,0.00,,,0.02,Wunderground v.1.15,2013-05-13 01:39:00,
2013-05-12 21:42:00,40.1,22.0,30.01,NW,312,1.0,-999.0,48,0.00,,,0.02,Wunderground v.1.15,2013-05-13 01:42:00,
2013-05-12 21:43:00,40.1,22.0,30.01,NNW,329,3.0,-999.0,48,0.00,,,0.02,Wunderground v.1.15,2013-05-13 01:43:00,
2013-05-12 21:46:00,40.1,22.0,30.01,North,356,2.0,-999.0,48,0.00,,,0.02,Wunderground v.1.15,2013-05-13 01:46:00,
2013-05-12 21:47:00,40.1,22.0,30.01,North,0,0.0,-999.0,48,0.00,,,0.02,Wunderground v.1.15,2013-05-13 01:47:00,
2013-05-12 21:48:00,39.9,21.8,30.01,North,6,2.0,-999.0,48,0.00,,,0.02,Wunderground v.1.15,2013-05-13 01:48:00,
2013-05-12 21:51:00,39.9,22.3,30.01,NW,320,2.0,-999.0,49,0.00,,,0.02,Wunderground v.1.15,2013-05-13 01:51:00,
2013-05-12 21:53:00,39.9,22.3,30.01,NW,320,0.0,-999.0,49,0.00,,,0.02,Wunderground v.1.15,2013-05-13 01:53:00,
2013-05-12 21:54:00,39.8,22.2,30.01,NW,311,1.0,-999.0,49,0.00,,,0.02,Wunderground v.1.15,2013-05-13 01:54:00,
2013-05-12 21:57:00,39.8,22.2,30.01,NNW,342,0.0,-999.0,49,0.00,,,0.02,Wunderground v.1.15,2013-05-13 01:57:00,
2013-05-12 21:58:00,39.8,22.2,30.01,North,353,1.0,-999.0,49,0.00,,,0.02,Wunderground v.1.15,2013-05-13 01:58:00,
2013-05-12 21:59:00,39.8,22.2,30.01,North,0,6.0,-999.0,49,0.00,,,0.02,Wunderground v.1.15,2013-05-13 01:59:00,
2013-05-12 22:00:00,39.6,22.0,30.01,NW,316,0.0,-999.0,49,0.00,,,0.02,Wunderground v.1.15,2013-05-13 02:00:00,
2013-05-12 22:03:00,39.6,22.5,30.01,WNW,298,0.0,-999.0,50,0.00,,,0.02,Wunderground v.1.15,2013-05-13 02:03:00,
2013-05-12 22:04:00,39.6,22.5,30.01,NW,325,2.0,-999.0,50,0.00,,,0.02,Wunderground v.1.15,2013-05-13 02:04:00,
2013-05-12 22:05:00,39.5,22.4,30.01,NW,322,0.0,-999.0,50,0.00,,,0.02,Wunderground v.1.15,2013-05-13 02:05:00,
2013-05-12 22:06:00,39.5,22.4,30.01,NW,322,1.0,-999.0,50,0.00,,,0.02,Wunderground v.1.15,2013-05-13 02:06:00,
2013-05-12 22:09:00,39.5,22.4,30.01,WNW,288,0.0,-999.0,50,0.00,,,0.02,Wunderground v.1.15,2013-05-13 02:09:00,
2013-05-12 22:10:00,39.3,22.2,30.01,NW,311,1.0,-999.0,50,0.00,,,0.02,Wunderground v.1.15,2013-05-13 02:10:00,
2013-05-12 22:11:00,39.3,22.7,30.01,NW,313,0.0,-999.0,51,0.00,,,0.02,Wunderground v.1.15,2013-05-13 02:11:00,
2013-05-12 22:12:00,39.3,22.7,30.01,NW,313,1.0,-999.0,51,0.00,,,0.02,Wunderground v.1.15,2013-05-13 02:12:00,
2013-05-12 22:15:00,39.3,22.7,30.02,NW,312,0.0,-999.0,51,0.00,,,0.02,Wunderground v.1.15,2013-05-13 02:15:00,
2013-05-12 22:16:00,39.3,23.1,30.02,NW,312,0.0,-999.0,52,0.00,,,0.02,Wunderground v.1.15,2013-05-13 02:16:00,
2013-05-12 22:17:00,39.3,23.1,30.02,NNW,329,2.0,-999.0,52,0.00,,,0.02,Wunderground v.1.15,2013-05-13 02:17:00,
2013-05-12 22:20:00,39.2,22.6,30.02,NW,309,2.0,-999.0,51,0.00,,,0.02,Wunderground v.1.15,2013-05-13 02:20:00,
2013-05-12 22:21:00,39.2,22.6,30.02,NW,306,0.0,-999.0,51,0.00,,,0.02,Wunderground v.1.15,2013-05-13 02:21:00,
2013-05-12 22:23:00,39.2,23.0,30.02,NW,306,0.0,-999.0,52,0.00,,,0.02,Wunderground v.1.15,2013-05-13 02:23:00,
2013-05-12 22:24:00,39.2,23.0,30.02,NW,306,0.0,-999.0,52,0.00,,,0.02,Wunderground v.1.15,2013-05-13 02:24:00,
2013-05-12 22:26:00,39.2,23.0,30.02,NW,312,0.0,-999.0,52,0.00,,,0.02,Wunderground v.1.15,2013-05-13 02:26:00,
2013-05-12 22:27:00,39.2,23.0,30.02,NW,312,0.0,-999.0,52,0.00,,,0.02,Wunderground v.1.15,2013-05-13 02:27:00,
2013-05-12 22:29:00,39.1,22.9,30.02,NW,312,0.0,-999.0,52,0.00,,,0.02,Wunderground v.1.15,2013-05-13 02:29:00,
2013-05-12 22:31:00,39.1,22.9,30.02,NW,312,0.0,-999.0,52,0.00,,,0.02,Wunderground v.1.15,2013-05-13 02:31:00,
2013-05-12 22:32:00,39.1,22.9,30.02,NW,312,0.0,-999.0,52,0.00,,,0.02,Wunderground v.1.15,2013-05-13 02:32:00,
2013-05-12 22:34:00,38.9,23.2,30.02,NW,304,2.0,-999.0,53,0.00,,,0.02,Wunderground v.1.15,2013-05-13 02:34:00,
2013-05-12 22:35:00,38.9,23.2,30.02,NW,320,2.0,-999.0,53,0.00,,,0.02,Wunderground v.1.15,2013-05-13 02:35:00,
2013-05-12 22:36:00,38.9,23.2,30.02,NW,306,2.0,-999.0,53,0.00,,,0.02,Wunderground v.1.15,2013-05-13 02:36:00,
2013-05-12 22:37:00,38.9,23.2,30.02,NW,320,0.0,-999.0,53,0.00,,,0.02,Wunderground v.1.15,2013-05-13 02:37:00,
2013-05-12 22:39:00,38.9,23.2,30.02,NW,304,0.0,-999.0,53,0.00,,,0.02,Wunderground v.1.15,2013-05-13 02:39:00,
2013-05-12 22:41:00,38.8,23.1,30.02,NW,304,0.0,-999.0,53,0.00,,,0.02,Wunderground v.1.15,2013-05-13 02:41:00,
2013-05-12 22:42:00,38.8,23.1,30.02,NW,304,0.0,-999.0,53,0.00,,,0.02,Wunderground v.1.15,2013-05-13 02:42:00,
2013-05-12 22:45:00,38.8,23.6,30.03,WNW,288,2.0,-999.0,54,0.00,,,0.02,Wunderground v.1.15,2013-05-13 02:45:00,
2013-05-12 22:47:00,38.6,23.4,30.03,NW,309,0.0,-999.0,54,0.00,,,0.02,Wunderground v.1.15,2013-05-13 02:47:00,
2013-05-12 22:48:00,38.6,23.4,30.03,NW,309,0.0,-999.0,54,0.00,,,0.02,Wunderground v.1.15,2013-05-13 02:48:00,
2013-05-12 22:51:00,38.6,23.4,30.03,NW,309,0.0,-999.0,54,0.00,,,0.02,Wunderground v.1.15,2013-05-13 02:51:00,
2013-05-12 22:52:00,38.6,23.4,30.03,NW,309,0.0,-999.0,54,0.00,,,0.02,Wunderground v.1.15,2013-05-13 02:52:00,
2013-05-12 22:53:00,38.5,23.3,30.03,NW,309,0.0,-999.0,54,0.00,,,0.02,Wunderground v.1.15,2013-05-13 02:53:00,
2013-05-12 22:54:00,38.5,23.3,30.03,NW,309,0.0,-999.0,54,0.00,,,0.02,Wunderground v.1.15,2013-05-13 02:54:00,
2013-05-12 22:57:00,38.5,23.7,30.03,NW,309,0.0,-999.0,55,0.00,,,0.02,Wunderground v.1.15,2013-05-13 02:57:00,
2013-05-12 22:58:00,38.3,23.5,30.03,NW,309,0.0,-999.0,55,0.00,,,0.02,Wunderground v.1.15,2013-05-13 02:58:00,
2013-05-12 22:59:00,38.3,23.5,30.03,NW,309,0.0,-999.0,55,0.00,,,0.02,Wunderground v.1.15,2013-05-13 02:59:00,
2013-05-12 23:02:00,38.3,23.5,30.03,NW,309,0.0,-999.0,55,0.00,,,0.00,Wunderground v.1.15,2013-05-13 03:02:00,
2013-05-12 23:03:00,38.2,23.4,30.03,NW,309,0.0,-999.0,55,0.00,,,0.00,Wunderground v.1.15,2013-05-13 03:03:00,
2013-05-12 23:04:00,38.2,23.4,30.03,NW,309,0.0,-999.0,55,0.00,,,0.00,Wunderground v.1.15,2013-05-13 03:04:00,
2013-05-12 23:07:00,38.2,23.4,30.03,NW,309,0.0,-999.0,55,0.00,,,0.00,Wunderground v.1.15,2013-05-13 03:07:00,
2013-05-12 23:08:00,38.0,23.3,30.03,NW,309,0.0,-999.0,55,0.00,,,0.00,Wunderground v.1.15,2013-05-13 03:08:00,
2013-05-12 23:09:00,38.0,23.7,30.03,NW,309,0.0,-999.0,56,0.00,,,0.00,Wunderground v.1.15,2013-05-13 03:09:00,
2013-05-12 23:12:00,38.0,23.7,30.03,NW,309,0.0,-999.0,56,0.00,,,0.00,Wunderground v.1.15,2013-05-13 03:12:00,
2013-05-12 23:13:00,37.9,23.6,30.03,NW,309,0.0,-999.0,56,0.00,,,0.00,Wunderground v.1.15,2013-05-13 03:13:00,
2013-05-12 23:14:00,37.9,23.6,30.03,NW,309,0.0,-999.0,56,0.00,,,0.00,Wunderground v.1.15,2013-05-13 03:14:00,
2013-05-12 23:15:00,37.9,23.6,30.02,NW,309,0.0,-999.0,56,0.00,,,0.00,Wunderground v.1.15,2013-05-13 03:15:00,
2013-05-12 23:17:00,37.8,23.5,30.02,NW,309,0.0,-999.0,56,0.00,,,0.00,Wunderground v.1.15,2013-05-13 03:17:00,
2013-05-12 23:19:00,37.8,23.9,30.02,NW,309,0.0,-999.0,57,0.00,,,0.00,Wunderground v.1.15,2013-05-13 03:19:00,
2013-05-12 23:20:00,37.8,23.9,30.02,NW,309,0.0,-999.0,57,0.00,,,0.00,Wunderground v.1.15,2013-05-13 03:20:00,
2013-05-12 23:21:00,37.6,23.7,30.02,NW,309,0.0,-999.0,57,0.00,,,0.00,Wunderground v.1.15,2013-05-13 03:21:00,
2013-05-12 23:23:00,37.6,23.7,30.02,NW,309,0.0,-999.0,57,0.00,,,0.00,Wunderground v.1.15,2013-05-13 03:23:00,
2013-05-12 23:24:00,37.6,23.7,30.02,NW,309,0.0,-999.0,57,0.00,,,0.00,Wunderground v.1.15,2013-05-13 03:24:00,
2013-05-12 23:25:00,37.5,23.6,30.02,NW,309,0.0,-999.0,57,0.00,,,0.00,Wunderground v.1.15,2013-05-13 03:25:00,
2013-05-12 23:27:00,37.5,23.6,30.02,NW,309,0.0,-999.0,57,0.00,,,0.00,Wunderground v.1.15,2013-05-13 03:27:00,
2013-05-12 23:29:00,37.5,23.6,30.02,NW,309,0.0,-999.0,57,0.00,,,0.00,Wunderground v.1.15,2013-05-13 03:29:00,
2013-05-12 23:31:00,37.3,23.9,30.02,NW,309,0.0,-999.0,58,0.00,,,0.00,Wunderground v.1.15,2013-05-13 03:31:00,
2013-05-12 23:32:00,37.3,23.9,30.02,NW,309,0.0,-999.0,58,0.00,,,0.00,Wunderground v.1.15,2013-05-13 03:32:00,
2013-05-12 23:34:00,37.2,23.8,30.02,NW,309,0.0,-999.0,58,0.00,,,0.00,Wunderground v.1.15,2013-05-13 03:34:00,
2013-05-12 23:36:00,37.2,23.8,30.02,NW,309,0.0,-999.0,58,0.00,,,0.00,Wunderground v.1.15,2013-05-13 03:36:00,
2013-05-12 23:37:00,37.2,23.8,30.02,NW,309,0.0,-999.0,58,0.00,,,0.00,Wunderground v.1.15,2013-05-13 03:37:00,
2013-05-12 23:38:00,37.0,23.6,30.02,NW,309,0.0,-999.0,58,0.00,,,0.00,Wunderground v.1.15,2013-05-13 03:38:00,
2013-05-12 23:39:00,37.0,23.6,30.02,NW,309,0.0,-999.0,58,0.00,,,0.00,Wunderground v.1.15,2013-05-13 03:39:00,
2013-05-12 23:41:00,37.0,23.6,30.02,NW,309,0.0,-999.0,58,0.00,,,0.00,Wunderground v.1.15,2013-05-13 03:41:00,
2013-05-12 23:43:00,36.9,23.5,30.02,NW,309,0.0,-999.0,58,0.00,,,0.00,Wunderground v.1.15,2013-05-13 03:43:00,
2013-05-12 23:44:00,36.9,23.5,30.02,NW,309,0.0,-999.0,58,0.00,,,0.00,Wunderground v.1.15,2013-05-13 03:44:00,
2013-05-12 23:45:00,36.9,23.9,30.02,NW,309,0.0,-999.0,59,0.00,,,0.00,Wunderground v.1.15,2013-05-13 03:45:00,
2013-05-12 23:47:00,36.9,23.9,30.02,NW,309,0.0,-999.0,59,0.00,,,0.00,Wunderground v.1.15,2013-05-13 03:47:00,
2013-05-12 23:48:00,36.8,23.8,30.02,NW,309,0.0,-999.0,59,0.00,,,0.00,Wunderground v.1.15,2013-05-13 03:48:00,
2013-05-12 23:49:00,36.8,23.8,30.02,NW,309,0.0,-999.0,59,0.00,,,0.00,Wunderground v.1.15,2013-05-13 03:49:00,
2013-05-12 23:50:00,36.8,23.8,30.02,NW,309,0.0,-999.0,59,0.00,,,0.00,Wunderground v.1.15,2013-05-13 03:50:00,
2013-05-12 23:53:00,36.6,23.6,30.02,NW,309,0.0,-999.0,59,0.00,,,0.00,Wunderground v.1.15,2013-05-13 03:53:00,
2013-05-12 23:54:00,36.6,24.0,30.02,NW,309,0.0,-999.0,60,0.00,,,0.00,Wunderground v.1.15,2013-05-13 03:54:00,
2013-05-12 23:56:00,36.6,24.0,30.02,NW,309,0.0,-999.0,60,0.00,,,0.00,Wunderground v.1.15,2013-05-13 03:56:00,
2013-05-12 23:58:00,36.5,23.9,30.02,NW,309,0.0,-999.0,60,0.00,,,0.00,Wunderground v.1.15,2013-05-13 03:58:00,